Time,TemperatureF,DewpointF,PressureIn,WindDirection,WindDirectionDegrees,WindSpeedMPH,WindSpeedGustMPH,Humidity,HourlyPrecipIn,Conditions,Clouds,dailyrainin,SolarRadiationWatts/m^2,SoftwareType,DateUTC
2013-01-18 00:05:00,29.6,27.3,30.31,NNW,333,0.0,-999.0,91,0.00,,,0.00,0,Wunderground v.1.15,2013-01-18 08:05:00,
2013-01-18 00:06:00,29.6,27.3,30.31,NNW,334,0.0,-999.0,91,0.00,,,0.00,0,Wunderground v.1.15,2013-01-18 08:06:00,
2013-01-18 00:07:00,29.6,27.3,30.31,NNW,333,0.0,-999.0,91,0.00,,,0.00,0,Wunderground v.1.15,2013-01-18 08:07:00,
2013-01-18 00:09:00,29.6,27.3,30.31,NNW,333,0.0,-999.0,91,0.00,,,0.00,0,Wunderground v.1.15,2013-01-18 08:09:00,
2013-01-18 00:11:00,29.6,27.3,30.31,NNW,333,0.0,-999.0,91,0.00,,,0.00,0,Wunderground v.1.15,2013-01-18 08:11:00,
2013-01-18 00:12:00,29.6,27.3,30.31,NNW,333,0.0,-999.0,91,0.00,,,0.00,0,Wunderground v.1.15,2013-01-18 08:12:00,
2013-01-18 00:14:00,29.6,27.3,30.31,NNW,333,0.0,-999.0,91,0.00,,,0.00,0,Wunderground v.1.15,2013-01-18 08:14:00,
2013-01-18 00:17:00,29.6,27.3,30.31,NNW,334,0.0,-999.0,91,0.00,,,0.00,0,Wunderground v.1.15,2013-01-18 08:17:00,
2013-01-18 00:19:00,29.6,27.3,30.31,NNW,333,0.0,-999.0,91,0.00,,,0.00,0,Wunderground v.1.15,2013-01-18 08:19:00,
2013-01-18 00:20:00,29.6,27.3,30.31,NNW,334,0.0,-999.0,91,0.00,,,0.00,0,Wunderground v.1.15,2013-01-18 08:20:00,
2013-01-18 00:23:00,29.6,27.3,30.31,NNW,334,0.0,-999.0,91,0.00,,,0.00,0,Wunderground v.1.15,2013-01-18 08:23:00,
2013-01-18 00:24:00,29.6,27.3,30.31,NNW,333,0.0,-999.0,91,0.00,,,0.00,0,Wunderground v.1.15,2013-01-18 08:24:00,
2013-01-18 00:26:00,29.6,27.3,30.31,NNW,333,0.0,-999.0,91,0.00,,,0.00,0,Wunderground v.1.15,2013-01-18 08:26:00,
2013-01-18 00:27:00,29.6,27.3,30.31,NNW,333,0.0,-999.0,91,0.00,,,0.00,0,Wunderground v.1.15,2013-01-18 08:27:00,
2013-01-18 00:32:00,29.6,27.3,30.31,NNW,333,0.0,-999.0,91,0.00,,,0.00,0,Wunderground v.1.15,2013-01-18 08:32:00,
2013-01-18 00:33:00,29.6,27.3,30.31,NNW,333,0.0,-999.0,91,0.00,,,0.00,0,Wunderground v.1.15,2013-01-18 08:33:00,
2013-01-18 00:35:00,29.6,27.3,30.31,NNW,333,0.0,-999.0,91,0.00,,,0.00,0,Wunderground v.1.15,2013-01-18 08:35:00,
2013-01-18 00:37:00,29.6,27.3,30.31,NNW,334,0.0,-999.0,91,0.00,,,0.00,0,Wunderground v.1.15,2013-01-18 08:37:00,
2013-01-18 00:38:00,29.4,27.1,30.31,NNW,334,0.0,-999.0,91,0.00,,,0.00,0,Wunderground v.1.15,2013-01-18 08:38:00,
2013-01-18 00:42:00,29.6,27.3,30.31,NNW,333,0.0,-999.0,91,0.00,,,0.00,0,Wunderground v.1.15,2013-01-18 08:42:00,
2013-01-18 00:43:00,29.4,27.1,30.31,NNW,334,0.0,-999.0,91,0.00,,,0.00,0,Wunderground v.1.15,2013-01-18 08:43:00,
2013-01-18 00:45:00,29.4,27.1,30.31,NNW,333,0.0,-999.0,91,0.00,,,0.00,0,Wunderground v.1.15,2013-01-18 08:45:00,
2013-01-18 00:46:00,29.4,27.1,30.31,NNW,333,0.0,-999.0,91,0.00,,,0.00,0,Wunderground v.1.15,2013-01-18 08:46:00,
2013-01-18 00:51:00,29.6,27.3,30.31,NNW,334,0.0,-999.0,91,0.00,,,0.00,0,Wunderground v.1.15,2013-01-18 08:51:00,
2013-01-18 00:52:00,29.6,27.3,30.31,NNW,333,0.0,-999.0,91,0.00,,,0.00,0,Wunderground v.1.15,2013-01-18 08:52:00,
2013-01-18 00:54:00,29.4,27.1,30.31,NNW,333,0.0,-999.0,91,0.00,,,0.00,0,Wunderground v.1.15,2013-01-18 08:54:00,
2013-01-18 00:58:00,29.4,27.1,30.31,NNW,333,0.0,-999.0,91,0.00,,,0.00,0,Wunderground v.1.15,2013-01-18 08:58:00,
2013-01-18 00:59:00,29.4,27.1,30.31,NNW,333,0.0,-999.0,91,0.00,,,0.00,0,Wunderground v.1.15,2013-01-18 08:59:00,
2013-01-18 01:03:00,29.7,27.4,30.30,NNW,333,0.0,-999.0,91,0.00,,,0.00,0,Wunderground v.1.15,2013-01-18 09:03:00,
2013-01-18 01:04:00,29.7,27.4,30.30,NNW,333,0.0,-999.0,91,0.00,,,0.00,0,Wunderground v.1.15,2013-01-18 09:04:00,
2013-01-18 01:05:00,29.7,27.4,30.30,NNW,334,0.0,-999.0,91,0.00,,,0.00,0,Wunderground v.1.15,2013-01-18 09:05:00,
2013-01-18 01:07:00,29.7,27.4,30.30,NNW,333,0.0,-999.0,91,0.00,,,0.00,0,Wunderground v.1.15,2013-01-18 09:07:00,
2013-01-18 01:08:00,29.7,27.4,30.30,NNW,333,0.0,-999.0,91,0.00,,,0.00,0,Wunderground v.1.15,2013-01-18 09:08:00,
2013-01-18 01:11:00,29.7,27.4,30.30,NNW,333,0.0,-999.0,91,0.00,,,0.00,0,Wunderground v.1.15,2013-01-18 09:11:00,
2013-01-18 01:12:00,29.7,27.4,30.30,NNW,333,0.0,-999.0,91,0.00,,,0.00,0,Wunderground v.1.15,2013-01-18 09:12:00,
2013-01-18 01:14:00,29.7,27.4,30.30,NNW,334,0.0,-999.0,91,0.00,,,0.00,0,Wunderground v.1.15,2013-01-18 09:14:00,
2013-01-18 01:17:00,29.7,27.4,30.31,NNW,333,0.0,-999.0,91,0.00,,,0.00,0,Wunderground v.1.15,2013-01-18 09:17:00,
2013-01-18 01:18:00,29.7,27.4,30.31,NNW,333,0.0,-999.0,91,0.00,,,0.00,0,Wunderground v.1.15,2013-01-18 09:18:00,
2013-01-18 01:19:00,29.7,27.4,30.31,NNW,333,0.0,-999.0,91,0.00,,,0.00,0,Wunderground v.1.15,2013-01-18 09:19:00,
2013-01-18 01:23:00,29.7,27.4,30.31,NNW,334,0.0,-999.0,91,0.00,,,0.00,0,Wunderground v.1.15,2013-01-18 09:23:00,
2013-01-18 01:24:00,29.7,27.4,30.31,NNW,333,0.0,-999.0,91,0.00,,,0.00,0,Wunderground v.1.15,2013-01-18 09:24:00,
2013-01-18 01:25:00,29.7,27.4,30.31,NNW,334,0.0,-999.0,91,0.00,,,0.00,0,Wunderground v.1.15,2013-01-18 09:25:00,
2013-01-18 01:26:00,29.7,27.4,30.31,NNW,334,0.0,-999.0,91,0.00,,,0.00,0,Wunderground v.1.15,2013-01-18 09:26:00,
2013-01-18 01:30:00,29.6,27.3,30.31,NNW,333,0.0,-999.0,91,0.00,,,0.00,0,Wunderground v.1.15,2013-01-18 09:30:00,
2013-01-18 01:31:00,29.6,27.3,30.31,NNW,333,0.0,-999.0,91,0.00,,,0.00,0,Wunderground v.1.15,2013-01-18 09:31:00,
2013-01-18 01:32:00,29.6,27.3,30.31,NNW,334,0.0,-999.0,91,0.00,,,0.00,0,Wunderground v.1.15,2013-01-18 09:32:00,
2013-01-18 01:33:00,29.6,27.3,30.31,NNW,333,0.0,-999.0,91,0.00,,,0.00,0,Wunderground v.1.15,2013-01-18 09:33:00,
2013-01-18 01:37:00,29.6,27.3,30.31,NNW,333,0.0,-999.0,91,0.00,,,0.00,0,Wunderground v.1.15,2013-01-18 09:37:00,
2013-01-18 01:38:00,29.6,27.3,30.31,NNW,333,0.0,-999.0,91,0.00,,,0.00,0,Wunderground v.1.15,2013-01-18 09:38:00,
2013-01-18 01:41:00,29.4,27.1,30.31,NNW,333,0.0,-999.0,91,0.00,,,0.00,0,Wunderground v.1.15,2013-01-18 09:41:00,
2013-01-18 01:43:00,29.4,27.1,30.31,NNW,333,0.0,-999.0,91,0.00,,,0.00,0,Wunderground v.1.15,2013-01-18 09:43:00,
2013-01-18 01:44:00,29.4,27.1,30.31,NNW,327,0.0,-999.0,91,0.00,,,0.00,0,Wunderground v.1.15,2013-01-18 09:44:00,
2013-01-18 01:48:00,29.1,26.8,30.31,NNW,333,0.0,-999.0,91,0.00,,,0.00,0,Wunderground v.1.15,2013-01-18 09:48:00,
2013-01-18 01:49:00,29.1,26.8,30.31,NNW,333,0.0,-999.0,91,0.00,,,0.00,0,Wunderground v.1.15,2013-01-18 09:49:00,
2013-01-18 01:50:00,29.1,26.8,30.31,NNW,333,0.0,-999.0,91,0.00,,,0.00,0,Wunderground v.1.15,2013-01-18 09:50:00,
2013-01-18 01:54:00,29.0,26.7,30.31,NNW,333,0.0,-999.0,91,0.00,,,0.00,0,Wunderground v.1.15,2013-01-18 09:54:00,
2013-01-18 01:55:00,29.0,26.7,30.31,NNW,334,0.0,-999.0,91,0.00,,,0.00,0,Wunderground v.1.15,2013-01-18 09:55:00,
2013-01-18 01:57:00,28.8,26.5,30.31,NNW,333,0.0,-999.0,91,0.00,,,0.00,0,Wunderground v.1.15,2013-01-18 09:57:00,
2013-01-18 02:01:00,28.8,26.5,30.31,NNW,333,0.0,-999.0,91,0.00,,,0.00,0,Wunderground v.1.15,2013-01-18 10:01:00,
2013-01-18 02:02:00,28.8,26.5,30.31,NNW,333,0.0,-999.0,91,0.00,,,0.00,0,Wunderground v.1.15,2013-01-18 10:02:00,
2013-01-18 02:06:00,28.7,26.4,30.31,NNW,333,0.0,-999.0,91,0.00,,,0.00,0,Wunderground v.1.15,2013-01-18 10:06:00,
2013-01-18 02:07:00,28.7,26.4,30.31,NNW,333,0.0,-999.0,91,0.00,,,0.00,0,Wunderground v.1.15,2013-01-18 10:07:00,
2013-01-18 02:11:00,28.7,26.4,30.31,NNW,334,0.0,-999.0,91,0.00,,,0.00,0,Wunderground v.1.15,2013-01-18 10:11:00,
2013-01-18 02:12:00,28.7,26.4,30.31,NNW,333,0.0,-999.0,91,0.00,,,0.00,0,Wunderground v.1.15,2013-01-18 10:12:00,
2013-01-18 02:16:00,28.5,26.2,30.31,NNW,333,0.0,-999.0,91,0.00,,,0.00,0,Wunderground v.1.15,2013-01-18 10:16:00,
2013-01-18 02:17:00,28.5,26.2,30.31,NNW,333,0.0,-999.0,91,0.00,,,0.00,0,Wunderground v.1.15,2013-01-18 10:17:00,
2013-01-18 02:22:00,28.4,26.1,30.31,NNW,333,0.0,-999.0,91,0.00,,,0.00,0,Wunderground v.1.15,2013-01-18 10:22:00,
2013-01-18 02:23:00,28.4,26.1,30.31,NNW,333,0.0,-999.0,91,0.00,,,0.00,0,Wunderground v.1.15,2013-01-18 10:23:00,
2013-01-18 02:27:00,28.4,26.1,30.31,NNW,334,0.0,-999.0,91,0.00,,,0.00,0,Wunderground v.1.15,2013-01-18 10:27:00,
2013-01-18 02:28:00,28.2,25.9,30.31,NNW,334,0.0,-999.0,91,0.00,,,0.00,0,Wunderground v.1.15,2013-01-18 10:28:00,
2013-01-18 02:32:00,28.2,25.9,30.32,NNW,334,0.0,-999.0,91,0.00,,,0.00,0,Wunderground v.1.15,2013-01-18 10:32:00,
2013-01-18 02:33:00,28.1,25.8,30.32,NNW,334,0.0,-999.0,91,0.00,,,0.00,0,Wunderground v.1.15,2013-01-18 10:33:00,
2013-01-18 02:34:00,28.1,25.8,30.32,NNW,333,0.0,-999.0,91,0.00,,,0.00,0,Wunderground v.1.15,2013-01-18 10:34:00,
2013-01-18 02:37:00,28.1,25.8,30.32,NNW,333,0.0,-999.0,91,0.00,,,0.00,0,Wunderground v.1.15,2013-01-18 10:37:00,
2013-01-18 02:39:00,27.9,25.6,30.32,NNW,333,0.0,-999.0,91,0.00,,,0.00,0,Wunderground v.1.15,2013-01-18 10:39:00,
2013-01-18 02:42:00,27.9,25.6,30.32,NNW,333,0.0,-999.0,91,0.00,,,0.00,0,Wunderground v.1.15,2013-01-18 10:42:00,
2013-01-18 02:44:00,27.8,25.5,30.32,NNW,333,0.0,-999.0,91,0.00,,,0.00,0,Wunderground v.1.15,2013-01-18 10:44:00,
2013-01-18 02:45:00,27.8,25.5,30.32,NNW,333,0.0,-999.0,91,0.00,,,0.00,0,Wunderground v.1.15,2013-01-18 10:45:00,
2013-01-18 02:48:00,27.8,25.5,30.31,NNW,333,0.0,-999.0,91,0.00,,,0.00,0,Wunderground v.1.15,2013-01-18 10:48:00,
2013-01-18 02:50:00,27.8,25.5,30.31,NNW,333,0.0,-999.0,91,0.00,,,0.00,0,Wunderground v.1.15,2013-01-18 10:50:00,
2013-01-18 02:54:00,27.6,25.3,30.31,NNW,333,0.0,-999.0,91,0.00,,,0.00,0,Wunderground v.1.15,2013-01-18 10:54:00,
2013-01-18 02:55:00,27.6,25.3,30.31,NNW,334,0.0,-999.0,91,0.00,,,0.00,0,Wunderground v.1.15,2013-01-18 10:55:00,
2013-01-18 02:59:00,27.6,25.3,30.31,NNW,333,0.0,-999.0,91,0.00,,,0.00,0,Wunderground v.1.15,2013-01-18 10:59:00,
2013-01-18 03:00:00,27.6,25.3,30.31,NNW,333,0.0,-999.0,91,0.00,,,0.00,0,Wunderground v.1.15,2013-01-18 11:00:00,
2013-01-18 03:04:00,27.5,25.2,30.31,NNW,334,0.0,-999.0,91,0.00,,,0.00,0,Wunderground v.1.15,2013-01-18 11:04:00,
2013-01-18 03:05:00,27.5,25.2,30.31,NNW,333,0.0,-999.0,91,0.00,,,0.00,0,Wunderground v.1.15,2013-01-18 11:05:00,
2013-01-18 03:09:00,27.5,25.2,30.31,NNW,333,0.0,-999.0,91,0.00,,,0.00,0,Wunderground v.1.15,2013-01-18 11:09:00,
2013-01-18 03:10:00,27.5,25.2,30.31,NNW,334,0.0,-999.0,91,0.00,,,0.00,0,Wunderground v.1.15,2013-01-18 11:10:00,
2013-01-18 03:14:00,27.3,25.0,30.31,NNW,333,0.0,-999.0,91,0.00,,,0.00,0,Wunderground v.1.15,2013-01-18 11:14:00,
2013-01-18 03:15:00,27.3,25.0,30.31,NNW,327,0.0,-999.0,91,0.00,,,0.00,0,Wunderground v.1.15,2013-01-18 11:15:00,
2013-01-18 03:16:00,27.3,25.0,30.31,NNW,334,0.0,-999.0,91,0.00,,,0.00,0,Wunderground v.1.15,2013-01-18 11:16:00,
2013-01-18 03:20:00,27.3,25.0,30.31,NNW,334,0.0,-999.0,91,0.00,,,0.00,0,Wunderground v.1.15,2013-01-18 11:20:00,
2013-01-18 03:21:00,27.3,25.0,30.31,NNW,333,0.0,-999.0,91,0.00,,,0.00,0,Wunderground v.1.15,2013-01-18 11:21:00,
2013-01-18 03:25:00,27.3,25.0,30.31,NNW,333,0.0,-999.0,91,0.00,,,0.00,0,Wunderground v.1.15,2013-01-18 11:25:00,
2013-01-18 03:26:00,27.3,25.0,30.31,NNW,333,0.0,-999.0,91,0.00,,,0.00,0,Wunderground v.1.15,2013-01-18 11:26:00,
2013-01-18 03:27:00,27.3,25.0,30.31,NNW,333,0.0,-999.0,91,0.00,,,0.00,0,Wunderground v.1.15,2013-01-18 11:27:00,
2013-01-18 03:30:00,27.3,25.0,30.30,NNW,333,0.0,-999.0,91,0.00,,,0.00,0,Wunderground v.1.15,2013-01-18 11:30:00,
2013-01-18 03:31:00,27.3,25.0,30.30,NNW,334,0.0,-999.0,91,0.00,,,0.00,0,Wunderground v.1.15,2013-01-18 11:31:00,
2013-01-18 03:32:00,27.3,25.0,30.30,NNW,334,0.0,-999.0,91,0.00,,,0.00,0,Wunderground v.1.15,2013-01-18 11:32:00,
2013-01-18 03:36:00,27.5,25.2,30.30,NNW,334,0.0,-999.0,91,0.00,,,0.00,0,Wunderground v.1.15,2013-01-18 11:36:00,
2013-01-18 03:37:00,27.5,25.2,30.30,NNW,333,0.0,-999.0,91,0.00,,,0.00,0,Wunderground v.1.15,2013-01-18 11:37:00,
2013-01-18 03:41:00,27.5,25.2,30.30,NNW,333,0.0,-999.0,91,0.00,,,0.00,0,Wunderground v.1.15,2013-01-18 11:41:00,
2013-01-18 03:42:00,27.5,25.2,30.30,NNW,334,0.0,-999.0,91,0.00,,,0.00,0,Wunderground v.1.15,2013-01-18 11:42:00,
2013-01-18 03:43:00,27.5,25.2,30.30,NNW,333,0.0,-999.0,91,0.00,,,0.00,0,Wunderground v.1.15,2013-01-18 11:43:00,
2013-01-18 03:46:00,27.5,25.2,30.29,NNW,334,0.0,-999.0,91,0.00,,,0.00,0,Wunderground v.1.15,2013-01-18 11:46:00,
2013-01-18 03:47:00,27.5,25.2,30.29,NNW,334,0.0,-999.0,91,0.00,,,0.00,0,Wunderground v.1.15,2013-01-18 11:47:00,
2013-01-18 03:48:00,27.5,25.2,30.29,NNW,334,0.0,-999.0,91,0.00,,,0.00,0,Wunderground v.1.15,2013-01-18 11:48:00,
2013-01-18 03:51:00,27.5,25.2,30.29,NNW,334,0.0,-999.0,91,0.00,,,0.00,0,Wunderground v.1.15,2013-01-18 11:51:00,
2013-01-18 03:52:00,27.5,25.2,30.29,NNW,333,0.0,-999.0,91,0.00,,,0.00,0,Wunderground v.1.15,2013-01-18 11:52:00,
2013-01-18 03:53:00,27.5,25.2,30.29,NNW,333,0.0,-999.0,91,0.00,,,0.00,0,Wunderground v.1.15,2013-01-18 11:53:00,
2013-01-18 03:54:00,27.5,25.2,30.29,NNW,334,0.0,-999.0,91,0.00,,,0.00,0,Wunderground v.1.15,2013-01-18 11:54:00,
2013-01-18 03:57:00,27.6,25.3,30.29,NNW,333,0.0,-999.0,91,0.00,,,0.00,0,Wunderground v.1.15,2013-01-18 11:57:00,
2013-01-18 03:58:00,27.6,25.3,30.29,NNW,333,0.0,-999.0,91,0.00,,,0.00,0,Wunderground v.1.15,2013-01-18 11:58:00,
2013-01-18 03:59:00,27.6,25.3,30.29,NNW,334,0.0,-999.0,91,0.00,,,0.00,0,Wunderground v.1.15,2013-01-18 11:59:00,
2013-01-18 04:02:00,27.6,25.3,30.29,NNW,334,0.0,-999.0,91,0.00,,,0.00,0,Wunderground v.1.15,2013-01-18 12:02:00,
2013-01-18 04:03:00,27.6,25.3,30.29,NNW,333,0.0,-999.0,91,0.00,,,0.00,0,Wunderground v.1.15,2013-01-18 12:03:00,
2013-01-18 04:04:00,27.6,25.3,30.29,NNW,333,0.0,-999.0,91,0.00,,,0.00,0,Wunderground v.1.15,2013-01-18 12:04:00,
2013-01-18 04:07:00,27.5,25.2,30.29,NNW,333,0.0,-999.0,91,0.00,,,0.00,0,Wunderground v.1.15,2013-01-18 12:07:00,
2013-01-18 04:08:00,27.5,25.2,30.29,NNW,333,0.0,-999.0,91,0.00,,,0.00,0,Wunderground v.1.15,2013-01-18 12:08:00,
2013-01-18 04:09:00,27.5,25.2,30.29,NNW,333,0.0,-999.0,91,0.00,,,0.00,0,Wunderground v.1.15,2013-01-18 12:09:00,
2013-01-18 04:12:00,27.6,25.3,30.29,NNW,333,0.0,-999.0,91,0.00,,,0.00,0,Wunderground v.1.15,2013-01-18 12:12:00,
2013-01-18 04:13:00,27.6,25.3,30.29,NNW,333,0.0,-999.0,91,0.00,,,0.00,0,Wunderground v.1.15,2013-01-18 12:13:00,
2013-01-18 04:14:00,27.6,25.3,30.29,NNW,333,0.0,-999.0,91,0.00,,,0.00,0,Wunderground v.1.15,2013-01-18 12:14:00,
2013-01-18 04:18:00,27.6,25.3,30.29,NNW,333,0.0,-999.0,91,0.00,,,0.00,0,Wunderground v.1.15,2013-01-18 12:18:00,
2013-01-18 04:19:00,27.6,25.3,30.29,NNW,333,0.0,-999.0,91,0.00,,,0.00,0,Wunderground v.1.15,2013-01-18 12:19:00,
2013-01-18 04:23:00,27.6,25.3,30.29,NNW,333,0.0,-999.0,91,0.00,,,0.00,0,Wunderground v.1.15,2013-01-18 12:23:00,
2013-01-18 04:24:00,27.6,25.3,30.29,NNW,333,0.0,-999.0,91,0.00,,,0.00,0,Wunderground v.1.15,2013-01-18 12:24:00,
2013-01-18 04:25:00,27.6,25.3,30.29,NNW,333,0.0,-999.0,91,0.00,,,0.00,0,Wunderground v.1.15,2013-01-18 12:25:00,
2013-01-18 04:28:00,27.8,25.5,30.29,NNW,333,0.0,-999.0,91,0.00,,,0.00,0,Wunderground v.1.15,2013-01-18 12:28:00,
2013-01-18 04:29:00,27.8,25.5,30.29,NNW,333,0.0,-999.0,91,0.00,,,0.00,0,Wunderground v.1.15,2013-01-18 12:29:00,
2013-01-18 04:30:00,27.8,25.5,30.29,NNW,333,0.0,-999.0,91,0.00,,,0.00,0,Wunderground v.1.15,2013-01-18 12:30:00,
2013-01-18 04:33:00,27.8,25.5,30.29,NNW,333,0.0,-999.0,91,0.00,,,0.00,0,Wunderground v.1.15,2013-01-18 12:33:00,
2013-01-18 04:34:00,27.8,25.5,30.29,NNW,333,0.0,-999.0,91,0.00,,,0.00,0,Wunderground v.1.15,2013-01-18 12:34:00,
2013-01-18 04:35:00,27.8,25.5,30.29,NNW,334,0.0,-999.0,91,0.00,,,0.00,0,Wunderground v.1.15,2013-01-18 12:35:00,
2013-01-18 04:38:00,27.8,25.5,30.29,NNW,334,0.0,-999.0,91,0.00,,,0.00,0,Wunderground v.1.15,2013-01-18 12:38:00,
2013-01-18 04:39:00,27.8,25.5,30.29,NNW,333,0.0,-999.0,91,0.00,,,0.00,0,Wunderground v.1.15,2013-01-18 12:39:00,
2013-01-18 04:40:00,27.8,25.5,30.29,NNW,334,0.0,-999.0,91,0.00,,,0.00,0,Wunderground v.1.15,2013-01-18 12:40:00,
2013-01-18 04:44:00,27.8,25.5,30.29,NNW,333,0.0,-999.0,91,0.00,,,0.00,0,Wunderground v.1.15,2013-01-18 12:44:00,
2013-01-18 04:45:00,27.8,25.5,30.29,NNW,333,0.0,-999.0,91,0.00,,,0.00,0,Wunderground v.1.15,2013-01-18 12:45:00,
2013-01-18 04:49:00,27.8,25.5,30.29,NNW,334,0.0,-999.0,91,0.00,,,0.00,0,Wunderground v.1.15,2013-01-18 12:49:00,
2013-01-18 04:50:00,27.8,25.5,30.29,NNW,333,0.0,-999.0,91,0.00,,,0.00,0,Wunderground v.1.15,2013-01-18 12:50:00,
2013-01-18 04:54:00,27.8,25.5,30.29,NNW,333,0.0,-999.0,91,0.00,,,0.00,0,Wunderground v.1.15,2013-01-18 12:54:00,
2013-01-18 04:55:00,27.8,25.5,30.29,NNW,333,0.0,-999.0,91,0.00,,,0.00,0,Wunderground v.1.15,2013-01-18 12:55:00,
2013-01-18 04:56:00,27.8,25.5,30.29,NNW,333,0.0,-999.0,91,0.00,,,0.00,0,Wunderground v.1.15,2013-01-18 12:56:00,
2013-01-18 05:00:00,27.6,25.3,30.29,NNW,333,0.0,-999.0,91,0.00,,,0.00,0,Wunderground v.1.15,2013-01-18 13:00:00,
2013-01-18 05:01:00,27.6,25.3,30.29,NNW,333,0.0,-999.0,91,0.00,,,0.00,0,Wunderground v.1.15,2013-01-18 13:01:00,
2013-01-18 05:05:00,27.6,25.3,30.29,NNW,333,0.0,-999.0,91,0.00,,,0.00,0,Wunderground v.1.15,2013-01-18 13:05:00,
2013-01-18 05:06:00,27.6,25.3,30.29,NNW,333,0.0,-999.0,91,0.00,,,0.00,0,Wunderground v.1.15,2013-01-18 13:06:00,
2013-01-18 05:10:00,27.6,25.3,30.29,NNW,333,0.0,-999.0,91,0.00,,,0.00,0,Wunderground v.1.15,2013-01-18 13:10:00,
2013-01-18 05:11:00,27.6,25.3,30.29,NNW,334,0.0,-999.0,91,0.00,,,0.00,0,Wunderground v.1.15,2013-01-18 13:11:00,
2013-01-18 05:15:00,27.5,25.2,30.29,NNW,334,0.0,-999.0,91,0.00,,,0.00,0,Wunderground v.1.15,2013-01-18 13:15:00,
2013-01-18 05:16:00,27.5,25.2,30.29,NNW,334,0.0,-999.0,91,0.00,,,0.00,0,Wunderground v.1.15,2013-01-18 13:16:00,
2013-01-18 05:17:00,27.5,25.2,30.29,NNW,334,0.0,-999.0,91,0.00,,,0.00,0,Wunderground v.1.15,2013-01-18 13:17:00,
2013-01-18 05:20:00,27.3,25.0,30.29,NNW,333,0.0,-999.0,91,0.00,,,0.00,0,Wunderground v.1.15,2013-01-18 13:20:00,
2013-01-18 05:21:00,27.2,24.9,30.29,NNW,333,0.0,-999.0,91,0.00,,,0.00,0,Wunderground v.1.15,2013-01-18 13:21:00,
2013-01-18 05:22:00,27.2,24.9,30.29,NNW,333,0.0,-999.0,91,0.00,,,0.00,0,Wunderground v.1.15,2013-01-18 13:22:00,
2013-01-18 05:25:00,27.2,24.9,30.29,NNW,333,0.0,-999.0,91,0.00,,,0.00,0,Wunderground v.1.15,2013-01-18 13:25:00,
2013-01-18 05:26:00,27.2,24.9,30.29,NNW,333,0.0,-999.0,91,0.00,,,0.00,0,Wunderground v.1.15,2013-01-18 13:26:00,
2013-01-18 05:27:00,27.2,24.9,30.29,NNW,333,0.0,-999.0,91,0.00,,,0.00,0,Wunderground v.1.15,2013-01-18 13:27:00,
2013-01-18 05:31:00,27.2,24.9,30.29,NNW,334,0.0,-999.0,91,0.00,,,0.00,0,Wunderground v.1.15,2013-01-18 13:31:00,
2013-01-18 05:32:00,27.0,24.7,30.29,NNW,333,0.0,-999.0,91,0.00,,,0.00,0,Wunderground v.1.15,2013-01-18 13:32:00,
2013-01-18 05:33:00,27.0,24.7,30.29,NNW,334,0.0,-999.0,91,0.00,,,0.00,0,Wunderground v.1.15,2013-01-18 13:33:00,
2013-01-18 05:36:00,27.0,24.7,30.29,NNW,333,0.0,-999.0,91,0.00,,,0.00,0,Wunderground v.1.15,2013-01-18 13:36:00,
2013-01-18 05:37:00,27.0,24.7,30.29,NNW,334,0.0,-999.0,91,0.00,,,0.00,0,Wunderground v.1.15,2013-01-18 13:37:00,
2013-01-18 05:39:00,27.0,24.7,30.29,NNW,333,0.0,-999.0,91,0.00,,,0.00,0,Wunderground v.1.15,2013-01-18 13:39:00,
2013-01-18 05:42:00,26.9,24.6,30.29,NNW,333,0.0,-999.0,91,0.00,,,0.00,0,Wunderground v.1.15,2013-01-18 13:42:00,
2013-01-18 05:44:00,26.9,24.6,30.29,NNW,333,0.0,-999.0,91,0.00,,,0.00,0,Wunderground v.1.15,2013-01-18 13:44:00,
2013-01-18 05:47:00,26.9,24.6,30.29,NNW,334,0.0,-999.0,91,0.00,,,0.00,0,Wunderground v.1.15,2013-01-18 13:47:00,
2013-01-18 05:49:00,26.7,24.4,30.29,NNW,333,0.0,-999.0,91,0.00,,,0.00,0,Wunderground v.1.15,2013-01-18 13:49:00,
2013-01-18 05:52:00,26.7,24.4,30.29,NNW,334,0.0,-999.0,91,0.00,,,0.00,0,Wunderground v.1.15,2013-01-18 13:52:00,
2013-01-18 05:54:00,26.6,24.3,30.29,NNW,334,0.0,-999.0,91,0.00,,,0.00,0,Wunderground v.1.15,2013-01-18 13:54:00,
2013-01-18 05:57:00,26.6,24.3,30.29,NNW,333,0.0,-999.0,91,0.00,,,0.00,0,Wunderground v.1.15,2013-01-18 13:57:00,
2013-01-18 05:58:00,26.6,24.3,30.29,NNW,333,0.0,-999.0,91,0.00,,,0.00,0,Wunderground v.1.15,2013-01-18 13:58:00,
2013-01-18 06:00:00,26.4,24.1,30.29,NNW,333,0.0,-999.0,91,0.00,,,0.00,0,Wunderground v.1.15,2013-01-18 14:00:00,
2013-01-18 06:02:00,26.4,24.1,30.29,NNW,333,0.0,-999.0,91,0.00,,,0.00,0,Wunderground v.1.15,2013-01-18 14:02:00,
2013-01-18 06:03:00,26.4,24.1,30.29,NNW,333,0.0,-999.0,91,0.00,,,0.00,0,Wunderground v.1.15,2013-01-18 14:03:00,
2013-01-18 06:06:00,26.4,24.1,30.29,NNW,333,0.0,-999.0,91,0.00,,,0.00,0,Wunderground v.1.15,2013-01-18 14:06:00,
2013-01-18 06:07:00,26.4,24.1,30.29,NNW,333,0.0,-999.0,91,0.00,,,0.00,0,Wunderground v.1.15,2013-01-18 14:07:00,
2013-01-18 06:08:00,26.4,24.1,30.29,NNW,333,0.0,-999.0,91,0.00,,,0.00,0,Wunderground v.1.15,2013-01-18 14:08:00,
2013-01-18 06:11:00,26.4,24.1,30.29,NNW,334,0.0,-999.0,91,0.00,,,0.00,0,Wunderground v.1.15,2013-01-18 14:11:00,
2013-01-18 06:12:00,26.4,24.1,30.29,NNW,333,0.0,-999.0,91,0.00,,,0.00,0,Wunderground v.1.15,2013-01-18 14:12:00,
2013-01-18 06:13:00,26.4,24.1,30.29,NNW,333,0.0,-999.0,91,0.00,,,0.00,0,Wunderground v.1.15,2013-01-18 14:13:00,
2013-01-18 06:16:00,26.3,24.0,30.28,NNW,333,0.0,-999.0,91,0.00,,,0.00,0,Wunderground v.1.15,2013-01-18 14:16:00,
2013-01-18 06:17:00,26.3,24.0,30.28,NNW,333,0.0,-999.0,91,0.00,,,0.00,0,Wunderground v.1.15,2013-01-18 14:17:00,
2013-01-18 06:18:00,26.3,24.0,30.28,NNW,334,0.0,-999.0,91,0.00,,,0.00,0,Wunderground v.1.15,2013-01-18 14:18:00,
2013-01-18 06:19:00,26.3,24.0,30.28,NNW,327,0.0,-999.0,91,0.00,,,0.00,0,Wunderground v.1.15,2013-01-18 14:19:00,
2013-01-18 06:22:00,26.3,24.0,30.28,NNW,333,0.0,-999.0,91,0.00,,,0.00,0,Wunderground v.1.15,2013-01-18 14:22:00,
2013-01-18 06:23:00,26.3,24.0,30.28,NNW,333,0.0,-999.0,91,0.00,,,0.00,0,Wunderground v.1.15,2013-01-18 14:23:00,
2013-01-18 06:24:00,26.3,24.0,30.28,NNW,333,0.0,-999.0,91,0.00,,,0.00,0,Wunderground v.1.15,2013-01-18 14:24:00,
2013-01-18 06:27:00,26.3,24.0,30.28,NNW,333,0.0,-999.0,91,0.00,,,0.00,0,Wunderground v.1.15,2013-01-18 14:27:00,
2013-01-18 06:28:00,26.3,24.0,30.28,NNW,334,0.0,-999.0,91,0.00,,,0.00,0,Wunderground v.1.15,2013-01-18 14:28:00,
2013-01-18 06:29:00,26.3,24.0,30.28,NNW,333,0.0,-999.0,91,0.00,,,0.00,0,Wunderground v.1.15,2013-01-18 14:29:00,
2013-01-18 06:32:00,26.3,24.0,30.28,NNW,334,0.0,-999.0,91,0.00,,,0.00,0,Wunderground v.1.15,2013-01-18 14:32:00,
2013-01-18 06:33:00,26.3,24.0,30.28,NNW,334,0.0,-999.0,91,0.00,,,0.00,0,Wunderground v.1.15,2013-01-18 14:33:00,
2013-01-18 06:34:00,26.3,24.0,30.28,NNW,333,0.0,-999.0,91,0.00,,,0.00,0,Wunderground v.1.15,2013-01-18 14:34:00,
2013-01-18 06:38:00,26.3,24.0,30.28,NNW,333,0.0,-999.0,91,0.00,,,0.00,0,Wunderground v.1.15,2013-01-18 14:38:00,
2013-01-18 06:39:00,26.3,24.0,30.28,NNW,333,0.0,-999.0,91,0.00,,,0.00,0,Wunderground v.1.15,2013-01-18 14:39:00,
2013-01-18 06:43:00,26.3,24.0,30.28,NNW,333,0.0,-999.0,91,0.00,,,0.00,0,Wunderground v.1.15,2013-01-18 14:43:00,
2013-01-18 06:44:00,26.3,24.0,30.28,NNW,333,0.0,-999.0,91,0.00,,,0.00,0,Wunderground v.1.15,2013-01-18 14:44:00,
2013-01-18 06:48:00,26.3,24.0,30.28,NNW,333,0.0,-999.0,91,0.00,,,0.00,0,Wunderground v.1.15,2013-01-18 14:48:00,
2013-01-18 06:49:00,26.3,24.0,30.28,NNW,334,0.0,-999.0,91,0.00,,,0.00,0,Wunderground v.1.15,2013-01-18 14:49:00,
2013-01-18 06:50:00,26.3,24.0,30.28,NNW,333,0.0,-999.0,91,0.00,,,0.00,0,Wunderground v.1.15,2013-01-18 14:50:00,
2013-01-18 06:53:00,26.3,24.0,30.28,NNW,333,0.0,-999.0,91,0.00,,,0.00,0,Wunderground v.1.15,2013-01-18 14:53:00,
2013-01-18 06:54:00,26.3,24.0,30.28,NNW,333,0.0,-999.0,91,0.00,,,0.00,0,Wunderground v.1.15,2013-01-18 14:54:00,
2013-01-18 06:55:00,26.3,24.0,30.28,NNW,333,0.0,-999.0,91,0.00,,,0.00,0,Wunderground v.1.15,2013-01-18 14:55:00,
2013-01-18 06:58:00,26.2,23.9,30.28,NNW,334,0.0,-999.0,91,0.00,,,0.00,0,Wunderground v.1.15,2013-01-18 14:58:00,
2013-01-18 06:59:00,26.2,23.9,30.28,NNW,333,0.0,-999.0,91,0.00,,,0.00,0,Wunderground v.1.15,2013-01-18 14:59:00,
2013-01-18 07:00:00,26.2,23.9,30.28,NNW,333,0.0,-999.0,91,0.00,,,0.00,0,Wunderground v.1.15,2013-01-18 15:00:00,
2013-01-18 07:04:00,26.2,23.9,30.28,NNW,333,0.0,-999.0,91,0.00,,,0.00,0,Wunderground v.1.15,2013-01-18 15:04:00,
2013-01-18 07:05:00,26.2,23.9,30.28,NNW,333,0.0,-999.0,91,0.00,,,0.00,0,Wunderground v.1.15,2013-01-18 15:05:00,
2013-01-18 07:09:00,26.0,23.7,30.28,NNW,333,0.0,-999.0,91,0.00,,,0.00,0,Wunderground v.1.15,2013-01-18 15:09:00,
2013-01-18 07:10:00,26.0,23.7,30.28,NNW,333,0.0,-999.0,91,0.00,,,0.00,0,Wunderground v.1.15,2013-01-18 15:10:00,
2013-01-18 07:14:00,26.0,23.7,30.28,NNW,333,0.0,-999.0,91,0.00,,,0.00,0,Wunderground v.1.15,2013-01-18 15:14:00,
2013-01-18 07:15:00,26.0,23.7,30.28,NNW,334,0.0,-999.0,91,0.00,,,0.00,0,Wunderground v.1.15,2013-01-18 15:15:00,
2013-01-18 07:16:00,26.0,23.7,30.28,NNW,333,0.0,-999.0,91,0.00,,,0.00,0,Wunderground v.1.15,2013-01-18 15:16:00,
2013-01-18 07:19:00,26.0,23.7,30.28,NNW,334,0.0,-999.0,91,0.00,,,0.00,0,Wunderground v.1.15,2013-01-18 15:19:00,
2013-01-18 07:20:00,26.0,23.7,30.28,NNW,333,0.0,-999.0,91,0.00,,,0.00,0,Wunderground v.1.15,2013-01-18 15:20:00,
2013-01-18 07:21:00,26.0,23.7,30.28,NNW,333,0.0,-999.0,91,0.00,,,0.00,0,Wunderground v.1.15,2013-01-18 15:21:00,
2013-01-18 07:24:00,26.0,23.7,30.28,NNW,334,0.0,-999.0,91,0.00,,,0.00,0,Wunderground v.1.15,2013-01-18 15:24:00,
2013-01-18 07:26:00,26.0,23.7,30.28,NNW,334,0.0,-999.0,91,0.00,,,0.00,0,Wunderground v.1.15,2013-01-18 15:26:00,
2013-01-18 07:30:00,25.9,23.6,30.28,NNW,333,0.0,-999.0,91,0.00,,,0.00,0,Wunderground v.1.15,2013-01-18 15:30:00,
2013-01-18 07:31:00,25.9,23.6,30.28,NNW,333,0.0,-999.0,91,0.00,,,0.00,0,Wunderground v.1.15,2013-01-18 15:31:00,
2013-01-18 07:32:00,25.9,23.6,30.28,NNW,334,0.0,-999.0,91,0.00,,,0.00,0,Wunderground v.1.15,2013-01-18 15:32:00,
2013-01-18 07:34:00,25.7,23.4,30.28,NNW,333,0.0,-999.0,91,0.00,,,0.00,0,Wunderground v.1.15,2013-01-18 15:34:00,
2013-01-18 07:36:00,25.7,23.4,30.28,NNW,333,0.0,-999.0,91,0.00,,,0.00,0,Wunderground v.1.15,2013-01-18 15:36:00,
2013-01-18 07:37:00,25.7,23.4,30.28,NNW,333,0.0,-999.0,91,0.00,,,0.00,0,Wunderground v.1.15,2013-01-18 15:37:00,
2013-01-18 07:39:00,25.6,23.3,30.28,NNW,334,0.0,-999.0,91,0.00,,,0.00,0,Wunderground v.1.15,2013-01-18 15:39:00,
2013-01-18 07:41:00,25.6,23.3,30.28,NNW,333,0.0,-999.0,91,0.00,,,0.00,0,Wunderground v.1.15,2013-01-18 15:41:00,
2013-01-18 07:42:00,25.6,23.3,30.28,NNW,333,0.0,-999.0,91,0.00,,,0.00,0,Wunderground v.1.15,2013-01-18 15:42:00,
2013-01-18 07:44:00,25.6,23.3,30.28,NNW,333,0.0,-999.0,91,0.00,,,0.00,0,Wunderground v.1.15,2013-01-18 15:44:00,
2013-01-18 07:46:00,25.6,23.3,30.28,NNW,334,0.0,-999.0,91,0.00,,,0.00,0,Wunderground v.1.15,2013-01-18 15:46:00,
2013-01-18 07:47:00,25.4,23.1,30.28,NNW,333,0.0,-999.0,91,0.00,,,0.00,0,Wunderground v.1.15,2013-01-18 15:47:00,
2013-01-18 07:50:00,25.4,23.1,30.28,NNW,333,0.0,-999.0,91,0.00,,,0.00,0,Wunderground v.1.15,2013-01-18 15:50:00,
2013-01-18 07:52:00,25.4,23.1,30.28,NNW,333,0.0,-999.0,91,0.00,,,0.00,0,Wunderground v.1.15,2013-01-18 15:52:00,
2013-01-18 07:55:00,25.4,23.1,30.28,NNW,333,0.0,-999.0,91,0.00,,,0.00,0,Wunderground v.1.15,2013-01-18 15:55:00,
2013-01-18 07:57:00,25.4,23.1,30.28,NNW,334,0.0,-999.0,91,0.00,,,0.00,0,Wunderground v.1.15,2013-01-18 15:57:00,
2013-01-18 08:00:00,25.4,23.1,30.29,NNW,333,0.0,-999.0,91,0.00,,,0.00,0,Wunderground v.1.15,2013-01-18 16:00:00,
2013-01-18 08:02:00,25.3,23.0,30.29,NNW,334,0.0,-999.0,91,0.00,,,0.00,0,Wunderground v.1.15,2013-01-18 16:02:00,
2013-01-18 08:06:00,25.3,23.0,30.29,NNW,333,0.0,-999.0,91,0.00,,,0.00,0,Wunderground v.1.15,2013-01-18 16:06:00,
2013-01-18 08:07:00,25.3,23.0,30.29,NNW,333,0.0,-999.0,91,0.00,,,0.00,0,Wunderground v.1.15,2013-01-18 16:07:00,
2013-01-18 08:11:00,25.3,23.0,30.29,NNW,333,0.0,-999.0,91,0.00,,,0.00,0,Wunderground v.1.15,2013-01-18 16:11:00,
2013-01-18 08:12:00,25.3,23.0,30.29,NNW,334,0.0,-999.0,91,0.00,,,0.00,0,Wunderground v.1.15,2013-01-18 16:12:00,
2013-01-18 08:16:00,25.1,22.8,30.31,NNW,333,0.0,-999.0,91,0.00,,,0.00,0,Wunderground v.1.15,2013-01-18 16:16:00,
2013-01-18 08:17:00,25.1,22.8,30.31,NNW,333,0.0,-999.0,91,0.00,,,0.00,0,Wunderground v.1.15,2013-01-18 16:17:00,
2013-01-18 08:18:00,25.1,22.8,30.31,NNW,333,0.0,-999.0,91,0.00,,,0.00,0,Wunderground v.1.15,2013-01-18 16:18:00,
2013-01-18 08:21:00,25.1,22.8,30.31,NNW,334,0.0,-999.0,91,0.00,,,0.00,0,Wunderground v.1.15,2013-01-18 16:21:00,
2013-01-18 08:23:00,25.0,22.7,30.31,NNW,334,0.0,-999.0,91,0.00,,,0.00,0,Wunderground v.1.15,2013-01-18 16:23:00,
2013-01-18 08:26:00,25.0,22.7,30.31,NNW,334,0.0,-999.0,91,0.00,,,0.00,0,Wunderground v.1.15,2013-01-18 16:26:00,
2013-01-18 08:28:00,25.0,22.7,30.31,NNW,333,0.0,-999.0,91,0.00,,,0.00,0,Wunderground v.1.15,2013-01-18 16:28:00,
2013-01-18 08:32:00,25.0,22.7,30.31,NNW,333,0.0,-999.0,91,0.00,,,0.00,5,Wunderground v.1.15,2013-01-18 16:32:00,
2013-01-18 08:33:00,25.0,22.7,30.31,NNW,334,0.0,-999.0,91,0.00,,,0.00,9,Wunderground v.1.15,2013-01-18 16:33:00,
2013-01-18 08:37:00,24.8,22.5,30.31,NNW,334,0.0,-999.0,91,0.00,,,0.00,11,Wunderground v.1.15,2013-01-18 16:37:00,
2013-01-18 08:38:00,24.8,22.5,30.31,NNW,334,0.0,-999.0,91,0.00,,,0.00,11,Wunderground v.1.15,2013-01-18 16:38:00,
2013-01-18 08:39:00,24.8,22.5,30.31,NNW,334,0.0,-999.0,91,0.00,,,0.00,11,Wunderground v.1.15,2013-01-18 16:39:00,
2013-01-18 08:42:00,24.8,22.5,30.31,NNW,334,0.0,-999.0,91,0.00,,,0.00,12,Wunderground v.1.15,2013-01-18 16:42:00,
2013-01-18 08:44:00,24.8,22.5,30.31,NNW,333,0.0,-999.0,91,0.00,,,0.00,12,Wunderground v.1.15,2013-01-18 16:44:00,
2013-01-18 08:47:00,25.0,22.7,30.32,NNW,334,0.0,-999.0,91,0.00,,,0.00,16,Wunderground v.1.15,2013-01-18 16:47:00,
2013-01-18 08:49:00,25.0,22.7,30.32,NNW,333,0.0,-999.0,91,0.00,,,0.00,16,Wunderground v.1.15,2013-01-18 16:49:00,
2013-01-18 08:52:00,25.0,22.7,30.32,NNW,334,0.0,-999.0,91,0.00,,,0.00,16,Wunderground v.1.15,2013-01-18 16:52:00,
2013-01-18 08:54:00,25.0,22.7,30.32,NNW,334,0.0,-999.0,91,0.00,,,0.00,23,Wunderground v.1.15,2013-01-18 16:54:00,
2013-01-18 08:55:00,25.0,22.7,30.32,NNW,334,0.0,-999.0,91,0.00,,,0.00,23,Wunderground v.1.15,2013-01-18 16:55:00,
2013-01-18 08:57:00,25.1,22.8,30.32,NNW,333,0.0,-999.0,91,0.00,,,0.00,25,Wunderground v.1.15,2013-01-18 16:57:00,
2013-01-18 08:59:00,25.1,22.8,30.32,NNW,334,0.0,-999.0,91,0.00,,,0.00,25,Wunderground v.1.15,2013-01-18 16:59:00,
2013-01-18 09:00:00,25.1,22.8,30.32,NNW,333,0.0,-999.0,91,0.00,,,0.00,25,Wunderground v.1.15,2013-01-18 17:00:00,
2013-01-18 09:02:00,25.3,23.0,30.32,NNW,333,0.0,-999.0,91,0.00,,,0.00,28,Wunderground v.1.15,2013-01-18 17:02:00,
2013-01-18 09:04:00,25.3,23.0,30.32,NNW,334,0.0,-999.0,91,0.00,,,0.00,28,Wunderground v.1.15,2013-01-18 17:04:00,
2013-01-18 09:05:00,25.3,23.0,30.32,NNW,333,0.0,-999.0,91,0.00,,,0.00,28,Wunderground v.1.15,2013-01-18 17:05:00,
2013-01-18 09:08:00,25.4,23.1,30.32,NNW,334,0.0,-999.0,91,0.00,,,0.00,30,Wunderground v.1.15,2013-01-18 17:08:00,
2013-01-18 09:09:00,25.4,23.1,30.32,NNW,333,0.0,-999.0,91,0.00,,,0.00,30,Wunderground v.1.15,2013-01-18 17:09:00,
2013-01-18 09:10:00,25.6,23.3,30.32,NNW,333,0.0,-999.0,91,0.00,,,0.00,32,Wunderground v.1.15,2013-01-18 17:10:00,
2013-01-18 09:11:00,25.6,23.3,30.32,NNW,333,0.0,-999.0,91,0.00,,,0.00,32,Wunderground v.1.15,2013-01-18 17:11:00,
2013-01-18 09:13:00,25.6,23.3,30.32,NNW,334,0.0,-999.0,91,0.00,,,0.00,32,Wunderground v.1.15,2013-01-18 17:13:00,
2013-01-18 09:15:00,25.7,23.4,30.32,NNW,333,0.0,-999.0,91,0.00,,,0.00,12,Wunderground v.1.15,2013-01-18 17:15:00,
2013-01-18 09:16:00,25.9,23.6,30.32,NNW,333,0.0,-999.0,91,0.00,,,0.00,12,Wunderground v.1.15,2013-01-18 17:16:00,
2013-01-18 09:18:00,25.9,23.6,30.32,NNW,333,0.0,-999.0,91,0.00,,,0.00,12,Wunderground v.1.15,2013-01-18 17:18:00,
2013-01-18 09:20:00,26.0,23.7,30.32,NNW,333,0.0,-999.0,91,0.00,,,0.00,11,Wunderground v.1.15,2013-01-18 17:20:00,
2013-01-18 09:21:00,26.0,23.7,30.32,NNW,333,0.0,-999.0,91,0.00,,,0.00,11,Wunderground v.1.15,2013-01-18 17:21:00,
2013-01-18 09:23:00,26.0,23.7,30.32,NNW,334,0.0,-999.0,91,0.00,,,0.00,21,Wunderground v.1.15,2013-01-18 17:23:00,
2013-01-18 09:25:00,26.2,23.9,30.32,NNW,334,0.0,-999.0,91,0.00,,,0.00,21,Wunderground v.1.15,2013-01-18 17:25:00,
2013-01-18 09:27:00,26.2,23.9,30.32,NNW,333,0.0,-999.0,91,0.00,,,0.00,18,Wunderground v.1.15,2013-01-18 17:27:00,
2013-01-18 09:29:00,26.3,24.0,30.32,NNW,333,0.0,-999.0,91,0.00,,,0.00,18,Wunderground v.1.15,2013-01-18 17:29:00,
2013-01-18 09:30:00,26.3,24.0,30.32,NNW,334,0.0,-999.0,91,0.00,,,0.00,18,Wunderground v.1.15,2013-01-18 17:30:00,
2013-01-18 09:32:00,26.4,24.1,30.32,NNW,333,0.0,-999.0,91,0.00,,,0.00,18,Wunderground v.1.15,2013-01-18 17:32:00,
2013-01-18 09:34:00,26.6,24.3,30.32,NNW,333,0.0,-999.0,91,0.00,,,0.00,18,Wunderground v.1.15,2013-01-18 17:34:00,
2013-01-18 09:36:00,26.6,24.3,30.32,NNW,334,0.0,-999.0,91,0.00,,,0.00,28,Wunderground v.1.15,2013-01-18 17:36:00,
2013-01-18 09:37:00,26.7,24.4,30.32,NNW,334,0.0,-999.0,91,0.00,,,0.00,28,Wunderground v.1.15,2013-01-18 17:37:00,
2013-01-18 09:39:00,26.7,24.4,30.32,NNW,327,0.0,-999.0,91,0.00,,,0.00,33,Wunderground v.1.15,2013-01-18 17:39:00,
2013-01-18 09:41:00,26.9,24.6,30.32,NNW,334,0.0,-999.0,91,0.00,,,0.00,33,Wunderground v.1.15,2013-01-18 17:41:00,
2013-01-18 09:43:00,27.0,24.7,30.32,NNW,334,0.0,-999.0,91,0.00,,,0.00,33,Wunderground v.1.15,2013-01-18 17:43:00,
2013-01-18 09:44:00,27.0,24.7,30.32,NNW,333,0.0,-999.0,91,0.00,,,0.00,39,Wunderground v.1.15,2013-01-18 17:44:00,
2013-01-18 09:46:00,27.2,24.9,30.33,NNW,333,0.0,-999.0,91,0.00,,,0.00,39,Wunderground v.1.15,2013-01-18 17:46:00,
2013-01-18 09:49:00,27.3,25.0,30.33,NNW,333,0.0,-999.0,91,0.00,,,0.00,33,Wunderground v.1.15,2013-01-18 17:49:00,
2013-01-18 09:50:00,27.5,25.2,30.33,NNW,333,1.0,-999.0,91,0.00,,,0.00,33,Wunderground v.1.15,2013-01-18 17:50:00,
2013-01-18 09:51:00,27.6,25.3,30.33,NNW,333,0.0,-999.0,91,0.00,,,0.00,33,Wunderground v.1.15,2013-01-18 17:51:00,
2013-01-18 09:54:00,27.8,25.5,30.33,NNW,333,0.0,-999.0,91,0.00,,,0.00,26,Wunderground v.1.15,2013-01-18 17:54:00,
2013-01-18 09:55:00,27.8,25.5,30.33,NNW,333,0.0,-999.0,91,0.00,,,0.00,26,Wunderground v.1.15,2013-01-18 17:55:00,
2013-01-18 09:56:00,27.8,25.5,30.33,NNW,333,0.0,-999.0,91,0.00,,,0.00,25,Wunderground v.1.15,2013-01-18 17:56:00,
2013-01-18 09:59:00,27.9,25.6,30.33,NNW,334,0.0,-999.0,91,0.00,,,0.00,25,Wunderground v.1.15,2013-01-18 17:59:00,
2013-01-18 10:01:00,28.1,25.8,30.32,NNW,334,0.0,-999.0,91,0.00,,,0.00,28,Wunderground v.1.15,2013-01-18 18:01:00,
2013-01-18 10:02:00,28.2,25.9,30.32,NNW,334,0.0,-999.0,91,0.00,,,0.00,28,Wunderground v.1.15,2013-01-18 18:02:00,
2013-01-18 10:04:00,28.2,25.9,30.32,NNW,333,0.0,-999.0,91,0.00,,,0.00,37,Wunderground v.1.15,2013-01-18 18:04:00,
2013-01-18 10:06:00,28.4,26.1,30.32,NNW,333,0.0,-999.0,91,0.00,,,0.00,37,Wunderground v.1.15,2013-01-18 18:06:00,
2013-01-18 10:07:00,28.4,26.1,30.32,NNW,333,0.0,-999.0,91,0.00,,,0.00,37,Wunderground v.1.15,2013-01-18 18:07:00,
2013-01-18 10:08:00,28.5,26.2,30.32,NNW,334,0.0,-999.0,91,0.00,,,0.00,37,Wunderground v.1.15,2013-01-18 18:08:00,
2013-01-18 10:10:00,28.5,26.2,30.32,NNW,333,0.0,-999.0,91,0.00,,,0.00,74,Wunderground v.1.15,2013-01-18 18:10:00,
2013-01-18 10:11:00,28.7,26.4,30.32,NNW,333,0.0,-999.0,91,0.00,,,0.00,76,Wunderground v.1.15,2013-01-18 18:11:00,
2013-01-18 10:12:00,28.7,26.4,30.32,NNW,333,0.0,-999.0,91,0.00,,,0.00,70,Wunderground v.1.15,2013-01-18 18:12:00,
2013-01-18 10:13:00,28.7,26.4,30.32,NNW,333,0.0,-999.0,91,0.00,,,0.00,72,Wunderground v.1.15,2013-01-18 18:13:00,
2013-01-18 10:15:00,28.8,26.5,30.33,NNW,333,0.0,-999.0,91,0.00,,,0.00,84,Wunderground v.1.15,2013-01-18 18:15:00,
2013-01-18 10:16:00,29.0,26.7,30.33,NNW,333,0.0,-999.0,91,0.00,,,0.00,79,Wunderground v.1.15,2013-01-18 18:16:00,
2013-01-18 10:18:00,29.0,26.7,30.33,NNW,333,0.0,-999.0,91,0.00,,,0.00,79,Wunderground v.1.15,2013-01-18 18:18:00,
2013-01-18 10:20:00,29.3,27.0,30.33,NNW,333,0.0,-999.0,91,0.00,,,0.00,77,Wunderground v.1.15,2013-01-18 18:20:00,
2013-01-18 10:22:00,29.4,27.1,30.33,NNW,333,0.0,-999.0,91,0.00,,,0.00,65,Wunderground v.1.15,2013-01-18 18:22:00,
2013-01-18 10:23:00,29.4,27.1,30.33,NNW,333,0.0,-999.0,91,0.00,,,0.00,81,Wunderground v.1.15,2013-01-18 18:23:00,
2013-01-18 10:25:00,29.6,27.3,30.33,NNW,333,0.0,-999.0,91,0.00,,,0.00,79,Wunderground v.1.15,2013-01-18 18:25:00,
2013-01-18 10:28:00,29.7,27.4,30.33,NNW,333,1.0,-999.0,91,0.00,,,0.00,67,Wunderground v.1.15,2013-01-18 18:28:00,
2013-01-18 10:31:00,29.7,27.4,30.32,NNW,333,0.0,-999.0,91,0.00,,,0.00,67,Wunderground v.1.15,2013-01-18 18:31:00,
2013-01-18 10:33:00,29.9,27.6,30.32,NNW,333,0.0,-999.0,91,0.00,,,0.00,67,Wunderground v.1.15,2013-01-18 18:33:00,
2013-01-18 10:34:00,29.9,27.6,30.32,NNW,333,0.0,-999.0,91,0.00,,,0.00,67,Wunderground v.1.15,2013-01-18 18:34:00,
2013-01-18 10:36:00,29.9,27.6,30.32,NNW,334,0.0,-999.0,91,0.00,,,0.00,69,Wunderground v.1.15,2013-01-18 18:36:00,
2013-01-18 10:39:00,30.0,27.7,30.32,NNW,333,0.0,-999.0,91,0.00,,,0.00,77,Wunderground v.1.15,2013-01-18 18:39:00,
2013-01-18 10:41:00,30.0,27.7,30.32,NNW,333,0.0,-999.0,91,0.00,,,0.00,86,Wunderground v.1.15,2013-01-18 18:41:00,
2013-01-18 10:44:00,30.1,27.8,30.32,NNW,333,0.0,-999.0,91,0.00,,,0.00,86,Wunderground v.1.15,2013-01-18 18:44:00,
2013-01-18 10:46:00,30.1,27.8,30.33,NNW,333,0.0,-999.0,91,0.00,,,0.00,93,Wunderground v.1.15,2013-01-18 18:46:00,
2013-01-18 10:49:00,30.3,28.0,30.33,NNW,334,0.0,-999.0,91,0.00,,,0.00,116,Wunderground v.1.15,2013-01-18 18:49:00,
2013-01-18 10:51:00,30.3,28.0,30.33,NNW,333,0.0,-999.0,91,0.00,,,0.00,99,Wunderground v.1.15,2013-01-18 18:51:00,
2013-01-18 10:54:00,30.3,28.0,30.33,NNW,333,0.0,-999.0,91,0.00,,,0.00,99,Wunderground v.1.15,2013-01-18 18:54:00,
2013-01-18 10:55:00,30.3,28.0,30.33,NNW,333,0.0,-999.0,91,0.00,,,0.00,99,Wunderground v.1.15,2013-01-18 18:55:00,
2013-01-18 10:57:00,30.4,28.1,30.33,NNW,334,0.0,-999.0,91,0.00,,,0.00,100,Wunderground v.1.15,2013-01-18 18:57:00,
2013-01-18 10:59:00,30.4,28.1,30.33,NNW,333,1.0,-999.0,91,0.00,,,0.00,127,Wunderground v.1.15,2013-01-18 18:59:00,
2013-01-18 11:00:00,30.4,28.1,30.33,NNW,333,0.0,-999.0,91,0.00,,,0.00,127,Wunderground v.1.15,2013-01-18 19:00:00,
2013-01-18 11:02:00,30.6,28.3,30.33,NNW,333,0.0,-999.0,91,0.00,,,0.00,125,Wunderground v.1.15,2013-01-18 19:02:00,
2013-01-18 11:04:00,30.6,28.3,30.33,WSW,238,0.0,-999.0,91,0.00,,,0.00,137,Wunderground v.1.15,2013-01-18 19:04:00,
2013-01-18 11:05:00,30.7,28.4,30.33,WSW,238,0.0,-999.0,91,0.00,,,0.00,139,Wunderground v.1.15,2013-01-18 19:05:00,
2013-01-18 11:07:00,30.9,28.6,30.33,WSW,238,0.0,-999.0,91,0.00,,,0.00,148,Wunderground v.1.15,2013-01-18 19:07:00,
2013-01-18 11:09:00,31.0,28.7,30.33,WSW,238,0.0,-999.0,91,0.00,,,0.00,169,Wunderground v.1.15,2013-01-18 19:09:00,
2013-01-18 11:10:00,31.2,28.9,30.33,WSW,238,0.0,-999.0,91,0.00,,,0.00,179,Wunderground v.1.15,2013-01-18 19:10:00,
2013-01-18 11:11:00,31.3,29.0,30.33,WSW,238,0.0,-999.0,91,0.00,,,0.00,179,Wunderground v.1.15,2013-01-18 19:11:00,
2013-01-18 11:12:00,31.6,29.3,30.33,WSW,238,0.0,-999.0,91,0.00,,,0.00,181,Wunderground v.1.15,2013-01-18 19:12:00,
2013-01-18 11:14:00,31.8,29.5,30.33,WSW,238,0.0,-999.0,91,0.00,,,0.00,178,Wunderground v.1.15,2013-01-18 19:14:00,
2013-01-18 11:15:00,31.9,29.6,30.33,WSW,238,0.0,-999.0,91,0.00,,,0.00,167,Wunderground v.1.15,2013-01-18 19:15:00,
2013-01-18 11:16:00,31.9,29.6,30.32,WSW,238,0.0,-999.0,91,0.00,,,0.00,132,Wunderground v.1.15,2013-01-18 19:16:00,
2013-01-18 11:17:00,32.1,29.8,30.32,WSW,238,0.0,-999.0,91,0.00,,,0.00,127,Wunderground v.1.15,2013-01-18 19:17:00,
2013-01-18 11:19:00,32.1,29.8,30.32,WSW,238,0.0,-999.0,91,0.00,,,0.00,84,Wunderground v.1.15,2013-01-18 19:19:00,
2013-01-18 11:21:00,32.1,29.8,30.32,WSW,238,0.0,-999.0,91,0.00,,,0.00,95,Wunderground v.1.15,2013-01-18 19:21:00,
2013-01-18 11:23:00,32.2,29.9,30.32,WSW,238,0.0,-999.0,91,0.00,,,0.00,67,Wunderground v.1.15,2013-01-18 19:23:00,
2013-01-18 11:25:00,32.2,29.9,30.32,WSW,238,0.0,-999.0,91,0.00,,,0.00,49,Wunderground v.1.15,2013-01-18 19:25:00,
2013-01-18 11:26:00,32.2,29.9,30.32,WSW,238,0.0,-999.0,91,0.00,,,0.00,60,Wunderground v.1.15,2013-01-18 19:26:00,
2013-01-18 11:28:00,32.2,29.9,30.32,WSW,238,0.0,-999.0,91,0.00,,,0.00,51,Wunderground v.1.15,2013-01-18 19:28:00,
2013-01-18 11:30:00,32.2,29.9,30.32,WSW,238,0.0,-999.0,91,0.00,,,0.00,100,Wunderground v.1.15,2013-01-18 19:30:00,
2013-01-18 11:31:00,32.2,29.9,30.32,WSW,238,0.0,-999.0,91,0.00,,,0.00,106,Wunderground v.1.15,2013-01-18 19:31:00,
2013-01-18 11:33:00,32.2,29.9,30.32,WSW,238,0.0,-999.0,91,0.00,,,0.00,102,Wunderground v.1.15,2013-01-18 19:33:00,
2013-01-18 11:35:00,32.2,29.9,30.32,WSW,238,0.0,-999.0,91,0.00,,,0.00,116,Wunderground v.1.15,2013-01-18 19:35:00,
2013-01-18 11:36:00,32.2,29.9,30.32,WSW,238,0.0,-999.0,91,0.00,,,0.00,107,Wunderground v.1.15,2013-01-18 19:36:00,
2013-01-18 11:38:00,32.4,30.1,30.32,West,268,1.0,-999.0,91,0.00,,,0.00,127,Wunderground v.1.15,2013-01-18 19:38:00,
2013-01-18 11:39:00,32.5,30.2,30.32,West,268,0.0,-999.0,91,0.00,,,0.00,127,Wunderground v.1.15,2013-01-18 19:39:00,
2013-01-18 11:40:00,32.7,30.4,30.32,West,268,0.0,-999.0,91,0.00,,,0.00,116,Wunderground v.1.15,2013-01-18 19:40:00,
2013-01-18 11:41:00,32.7,30.4,30.32,West,268,0.0,-999.0,91,0.00,,,0.00,90,Wunderground v.1.15,2013-01-18 19:41:00,
2013-01-18 11:44:00,32.8,30.5,30.32,West,268,0.0,-999.0,91,0.00,,,0.00,79,Wunderground v.1.15,2013-01-18 19:44:00,
2013-01-18 11:46:00,32.8,30.5,30.33,West,268,0.0,-999.0,91,0.00,,,0.00,84,Wunderground v.1.15,2013-01-18 19:46:00,
2013-01-18 11:47:00,32.8,30.5,30.33,West,268,0.0,-999.0,91,0.00,,,0.00,88,Wunderground v.1.15,2013-01-18 19:47:00,
2013-01-18 11:49:00,33.0,30.7,30.33,West,268,0.0,-999.0,91,0.00,,,0.00,86,Wunderground v.1.15,2013-01-18 19:49:00,
2013-01-18 11:51:00,33.0,30.7,30.33,West,268,0.0,-999.0,91,0.00,,,0.00,83,Wunderground v.1.15,2013-01-18 19:51:00,
2013-01-18 11:52:00,33.0,30.7,30.33,West,268,0.0,-999.0,91,0.00,,,0.00,91,Wunderground v.1.15,2013-01-18 19:52:00,
2013-01-18 11:54:00,33.0,30.7,30.33,West,268,0.0,-999.0,91,0.00,,,0.00,90,Wunderground v.1.15,2013-01-18 19:54:00,
2013-01-18 11:55:00,33.0,30.7,30.33,West,268,0.0,-999.0,91,0.00,,,0.00,90,Wunderground v.1.15,2013-01-18 19:55:00,
2013-01-18 11:56:00,33.0,30.7,30.33,West,268,1.0,-999.0,91,0.00,,,0.00,81,Wunderground v.1.15,2013-01-18 19:56:00,
2013-01-18 11:57:00,33.0,30.7,30.33,West,268,0.0,-999.0,91,0.00,,,0.00,77,Wunderground v.1.15,2013-01-18 19:57:00,
2013-01-18 11:59:00,33.0,30.7,30.33,West,268,0.0,-999.0,91,0.00,,,0.00,81,Wunderground v.1.15,2013-01-18 19:59:00,
2013-01-18 12:00:00,33.0,30.7,30.33,West,266,0.0,-999.0,91,0.00,,,0.00,76,Wunderground v.1.15,2013-01-18 20:00:00,
2013-01-18 12:01:00,33.0,30.7,30.33,West,266,0.0,-999.0,91,0.00,,,0.00,79,Wunderground v.1.15,2013-01-18 20:01:00,
2013-01-18 12:02:00,32.8,30.5,30.33,West,266,0.0,-999.0,91,0.00,,,0.00,93,Wunderground v.1.15,2013-01-18 20:02:00,
2013-01-18 12:04:00,32.8,30.5,30.33,West,266,0.0,-999.0,91,0.00,,,0.00,91,Wunderground v.1.15,2013-01-18 20:04:00,
2013-01-18 12:05:00,32.8,30.5,30.33,West,266,0.0,-999.0,91,0.00,,,0.00,97,Wunderground v.1.15,2013-01-18 20:05:00,
2013-01-18 12:06:00,32.8,30.5,30.33,West,266,0.0,-999.0,91,0.00,,,0.00,104,Wunderground v.1.15,2013-01-18 20:06:00,
2013-01-18 12:08:00,32.8,30.5,30.33,West,266,0.0,-999.0,91,0.00,,,0.00,90,Wunderground v.1.15,2013-01-18 20:08:00,
2013-01-18 12:10:00,32.8,30.5,30.33,West,266,0.0,-999.0,91,0.00,,,0.00,99,Wunderground v.1.15,2013-01-18 20:10:00,
2013-01-18 12:11:00,32.8,30.5,30.33,West,266,0.0,-999.0,91,0.00,,,0.00,104,Wunderground v.1.15,2013-01-18 20:11:00,
2013-01-18 12:13:00,32.8,30.5,30.33,West,261,0.0,-999.0,91,0.00,,,0.00,113,Wunderground v.1.15,2013-01-18 20:13:00,
2013-01-18 12:15:00,32.8,30.5,30.32,West,261,0.0,-999.0,91,0.00,,,0.00,113,Wunderground v.1.15,2013-01-18 20:15:00,
2013-01-18 12:16:00,32.8,30.5,30.32,West,261,0.0,-999.0,91,0.00,,,0.00,104,Wunderground v.1.15,2013-01-18 20:16:00,
2013-01-18 12:19:00,32.8,30.5,30.32,West,261,0.0,-999.0,91,0.00,,,0.00,100,Wunderground v.1.15,2013-01-18 20:19:00,
2013-01-18 12:20:00,32.8,30.5,30.32,West,261,0.0,-999.0,91,0.00,,,0.00,97,Wunderground v.1.15,2013-01-18 20:20:00,
2013-01-18 12:21:00,32.8,30.5,30.32,West,261,0.0,-999.0,91,0.00,,,0.00,97,Wunderground v.1.15,2013-01-18 20:21:00,
2013-01-18 12:25:00,32.8,30.5,30.32,West,261,0.0,-999.0,91,0.00,,,0.00,106,Wunderground v.1.15,2013-01-18 20:25:00,
2013-01-18 12:26:00,32.8,30.5,30.32,West,261,0.0,-999.0,91,0.00,,,0.00,106,Wunderground v.1.15,2013-01-18 20:26:00,
2013-01-18 12:27:00,32.8,30.5,30.32,West,261,1.0,-999.0,91,0.00,,,0.00,109,Wunderground v.1.15,2013-01-18 20:27:00,
2013-01-18 12:30:00,32.8,30.5,30.32,West,261,0.0,-999.0,91,0.00,,,0.00,114,Wunderground v.1.15,2013-01-18 20:30:00,
2013-01-18 12:31:00,33.0,30.7,30.32,West,261,0.0,-999.0,91,0.00,,,0.00,116,Wunderground v.1.15,2013-01-18 20:31:00,
2013-01-18 12:32:00,33.0,30.7,30.32,West,261,0.0,-999.0,91,0.00,,,0.00,109,Wunderground v.1.15,2013-01-18 20:32:00,
2013-01-18 12:35:00,33.0,30.7,30.32,West,261,0.0,-999.0,91,0.00,,,0.00,86,Wunderground v.1.15,2013-01-18 20:35:00,
2013-01-18 12:36:00,33.0,30.7,30.32,WNW,286,0.0,-999.0,91,0.00,,,0.00,79,Wunderground v.1.15,2013-01-18 20:36:00,
2013-01-18 12:37:00,33.1,30.8,30.32,WNW,286,0.0,-999.0,91,0.00,,,0.00,83,Wunderground v.1.15,2013-01-18 20:37:00,
2013-01-18 12:40:00,33.1,30.8,30.32,WNW,286,0.0,-999.0,91,0.00,,,0.00,93,Wunderground v.1.15,2013-01-18 20:40:00,
2013-01-18 12:41:00,33.1,30.8,30.32,WNW,286,0.0,-999.0,91,0.00,,,0.00,90,Wunderground v.1.15,2013-01-18 20:41:00,
2013-01-18 12:42:00,33.1,30.8,30.32,WNW,286,0.0,-999.0,91,0.00,,,0.00,86,Wunderground v.1.15,2013-01-18 20:42:00,
2013-01-18 12:45:00,33.1,30.8,30.32,WNW,286,0.0,-999.0,91,0.00,,,0.00,83,Wunderground v.1.15,2013-01-18 20:45:00,
2013-01-18 12:46:00,33.1,30.8,30.32,WNW,286,0.0,-999.0,91,0.00,,,0.00,84,Wunderground v.1.15,2013-01-18 20:46:00,
2013-01-18 12:47:00,33.1,30.8,30.32,West,263,0.0,-999.0,91,0.00,,,0.00,90,Wunderground v.1.15,2013-01-18 20:47:00,
2013-01-18 12:48:00,33.1,30.8,30.32,West,263,0.0,-999.0,91,0.00,,,0.00,88,Wunderground v.1.15,2013-01-18 20:48:00,
2013-01-18 12:50:00,33.1,30.8,30.32,West,263,0.0,-999.0,91,0.00,,,0.00,77,Wunderground v.1.15,2013-01-18 20:50:00,
2013-01-18 12:51:00,33.3,31.0,30.32,West,263,1.0,-999.0,91,0.00,,,0.00,76,Wunderground v.1.15,2013-01-18 20:51:00,
2013-01-18 12:53:00,33.3,31.0,30.32,West,263,0.0,-999.0,91,0.00,,,0.00,74,Wunderground v.1.15,2013-01-18 20:53:00,
2013-01-18 12:55:00,33.3,31.0,30.32,West,263,0.0,-999.0,91,0.00,,,0.00,65,Wunderground v.1.15,2013-01-18 20:55:00,
2013-01-18 12:56:00,33.3,31.0,30.32,West,263,0.0,-999.0,91,0.00,,,0.00,62,Wunderground v.1.15,2013-01-18 20:56:00,
2013-01-18 12:58:00,33.3,31.0,30.32,West,263,0.0,-999.0,91,0.00,,,0.00,65,Wunderground v.1.15,2013-01-18 20:58:00,
2013-01-18 13:00:00,33.3,31.0,30.33,West,263,0.0,-999.0,91,0.00,,,0.00,69,Wunderground v.1.15,2013-01-18 21:00:00,
2013-01-18 13:02:00,33.3,31.0,30.33,West,263,0.0,-999.0,91,0.00,,,0.00,67,Wunderground v.1.15,2013-01-18 21:02:00,
2013-01-18 13:03:00,33.3,31.0,30.33,West,263,0.0,-999.0,91,0.00,,,0.00,69,Wunderground v.1.15,2013-01-18 21:03:00,
2013-01-18 13:05:00,33.3,31.0,30.33,West,263,0.0,-999.0,91,0.00,,,0.00,69,Wunderground v.1.15,2013-01-18 21:05:00,
2013-01-18 13:07:00,33.3,31.0,30.33,West,263,0.0,-999.0,91,0.00,,,0.00,77,Wunderground v.1.15,2013-01-18 21:07:00,
2013-01-18 13:08:00,33.1,30.8,30.33,West,263,0.0,-999.0,91,0.00,,,0.00,77,Wunderground v.1.15,2013-01-18 21:08:00,
2013-01-18 13:09:00,33.1,30.8,30.33,West,263,0.0,-999.0,91,0.00,,,0.00,81,Wunderground v.1.15,2013-01-18 21:09:00,
2013-01-18 13:10:00,33.1,30.8,30.33,West,263,0.0,-999.0,91,0.00,,,0.00,86,Wunderground v.1.15,2013-01-18 21:10:00,
2013-01-18 13:12:00,33.1,30.8,30.33,West,263,0.0,-999.0,91,0.00,,,0.00,86,Wunderground v.1.15,2013-01-18 21:12:00,
2013-01-18 13:13:00,33.0,30.7,30.33,West,263,2.0,-999.0,91,0.00,,,0.00,93,Wunderground v.1.15,2013-01-18 21:13:00,
2013-01-18 13:14:00,33.0,30.7,30.33,West,263,0.0,-999.0,91,0.00,,,0.00,86,Wunderground v.1.15,2013-01-18 21:14:00,
2013-01-18 13:16:00,33.0,30.7,30.32,West,263,1.0,-999.0,91,0.00,,,0.00,95,Wunderground v.1.15,2013-01-18 21:16:00,
2013-01-18 13:18:00,33.0,30.7,30.32,West,259,1.0,-999.0,91,0.00,,,0.00,90,Wunderground v.1.15,2013-01-18 21:18:00,
2013-01-18 13:19:00,33.0,30.7,30.32,West,259,0.0,-999.0,91,0.00,,,0.00,99,Wunderground v.1.15,2013-01-18 21:19:00,
2013-01-18 13:21:00,33.0,30.7,30.32,West,259,0.0,-999.0,91,0.00,,,0.00,106,Wunderground v.1.15,2013-01-18 21:21:00,
2013-01-18 13:23:00,33.0,30.7,30.32,WSW,258,0.0,-999.0,91,0.00,,,0.00,100,Wunderground v.1.15,2013-01-18 21:23:00,
2013-01-18 13:25:00,33.0,30.7,30.32,WSW,258,0.0,-999.0,91,0.00,,,0.00,109,Wunderground v.1.15,2013-01-18 21:25:00,
2013-01-18 13:26:00,33.0,30.7,30.32,WSW,258,0.0,-999.0,91,0.00,,,0.00,111,Wunderground v.1.15,2013-01-18 21:26:00,
2013-01-18 13:28:00,33.1,30.8,30.32,WSW,258,0.0,-999.0,91,0.00,,,0.00,104,Wunderground v.1.15,2013-01-18 21:28:00,
2013-01-18 13:29:00,33.1,30.8,30.32,WSW,258,0.0,-999.0,91,0.00,,,0.00,104,Wunderground v.1.15,2013-01-18 21:29:00,
2013-01-18 13:30:00,33.1,30.8,30.32,WSW,258,0.0,-999.0,91,0.00,,,0.00,106,Wunderground v.1.15,2013-01-18 21:30:00,
2013-01-18 13:31:00,33.3,31.0,30.31,WSW,258,0.0,-999.0,91,0.00,,,0.00,109,Wunderground v.1.15,2013-01-18 21:31:00,
2013-01-18 13:34:00,33.3,31.0,30.31,WSW,258,0.0,-999.0,91,0.00,,,0.00,95,Wunderground v.1.15,2013-01-18 21:34:00,
2013-01-18 13:36:00,33.3,31.0,30.31,WSW,258,0.0,-999.0,91,0.00,,,0.00,111,Wunderground v.1.15,2013-01-18 21:36:00,
2013-01-18 13:39:00,33.4,31.1,30.31,WSW,258,0.0,-999.0,91,0.00,,,0.00,100,Wunderground v.1.15,2013-01-18 21:39:00,
2013-01-18 13:41:00,33.4,31.1,30.31,WSW,258,0.0,-999.0,91,0.00,,,0.00,90,Wunderground v.1.15,2013-01-18 21:41:00,
2013-01-18 13:44:00,33.5,31.2,30.31,WSW,258,0.0,-999.0,91,0.00,,,0.00,100,Wunderground v.1.15,2013-01-18 21:44:00,
2013-01-18 13:46:00,33.5,31.2,30.31,WSW,258,0.0,-999.0,91,0.00,,,0.00,97,Wunderground v.1.15,2013-01-18 21:46:00,
2013-01-18 13:50:00,33.5,31.2,30.31,WSW,258,0.0,-999.0,91,0.00,,,0.00,88,Wunderground v.1.15,2013-01-18 21:50:00,
2013-01-18 13:51:00,33.7,31.4,30.31,WSW,258,0.0,-999.0,91,0.00,,,0.00,88,Wunderground v.1.15,2013-01-18 21:51:00,
2013-01-18 13:52:00,33.7,31.4,30.31,WSW,258,0.0,-999.0,91,0.00,,,0.00,84,Wunderground v.1.15,2013-01-18 21:52:00,
2013-01-18 13:55:00,33.7,31.4,30.31,WSW,258,0.0,-999.0,91,0.00,,,0.00,72,Wunderground v.1.15,2013-01-18 21:55:00,
2013-01-18 13:56:00,33.7,31.4,30.31,WSW,258,0.0,-999.0,91,0.00,,,0.00,69,Wunderground v.1.15,2013-01-18 21:56:00,
2013-01-18 13:57:00,33.7,31.4,30.31,WSW,258,0.0,-999.0,91,0.00,,,0.00,65,Wunderground v.1.15,2013-01-18 21:57:00,
2013-01-18 14:00:00,33.8,31.5,30.31,WSW,258,0.0,-999.0,91,0.00,,,0.00,77,Wunderground v.1.15,2013-01-18 22:00:00,
2013-01-18 14:01:00,33.8,31.5,30.32,WSW,258,0.0,-999.0,91,0.00,,,0.00,77,Wunderground v.1.15,2013-01-18 22:01:00,
2013-01-18 14:02:00,33.8,31.5,30.32,WSW,258,0.0,-999.0,91,0.00,,,0.00,81,Wunderground v.1.15,2013-01-18 22:02:00,
2013-01-18 14:05:00,33.8,31.5,30.32,WSW,258,0.0,-999.0,91,0.00,,,0.00,72,Wunderground v.1.15,2013-01-18 22:05:00,
2013-01-18 14:06:00,34.0,31.6,30.32,WSW,258,0.0,-999.0,91,0.00,,,0.00,69,Wunderground v.1.15,2013-01-18 22:06:00,
2013-01-18 14:08:00,34.0,31.6,30.32,WSW,258,0.0,-999.0,91,0.00,,,0.00,93,Wunderground v.1.15,2013-01-18 22:08:00,
2013-01-18 14:10:00,34.0,31.6,30.32,WSW,258,0.0,-999.0,91,0.00,,,0.00,84,Wunderground v.1.15,2013-01-18 22:10:00,
2013-01-18 14:11:00,34.0,31.6,30.32,WSW,258,0.0,-999.0,91,0.00,,,0.00,77,Wunderground v.1.15,2013-01-18 22:11:00,
2013-01-18 14:12:00,34.0,31.6,30.32,WSW,258,0.0,-999.0,91,0.00,,,0.00,76,Wunderground v.1.15,2013-01-18 22:12:00,
2013-01-18 14:13:00,34.0,31.6,30.32,WSW,258,0.0,-999.0,91,0.00,,,0.00,79,Wunderground v.1.15,2013-01-18 22:13:00,
2013-01-18 14:15:00,34.0,31.6,30.32,WSW,258,0.0,-999.0,91,0.00,,,0.00,74,Wunderground v.1.15,2013-01-18 22:15:00,
2013-01-18 14:16:00,34.0,31.6,30.32,WSW,258,0.0,-999.0,91,0.00,,,0.00,76,Wunderground v.1.15,2013-01-18 22:16:00,
2013-01-18 14:17:00,33.8,31.5,30.32,WSW,258,0.0,-999.0,91,0.00,,,0.00,72,Wunderground v.1.15,2013-01-18 22:17:00,
2013-01-18 14:19:00,33.8,31.5,30.32,WSW,258,0.0,-999.0,91,0.00,,,0.00,74,Wunderground v.1.15,2013-01-18 22:19:00,
2013-01-18 14:21:00,33.8,31.5,30.32,WSW,258,0.0,-999.0,91,0.00,,,0.00,69,Wunderground v.1.15,2013-01-18 22:21:00,
2013-01-18 14:22:00,33.8,31.5,30.32,WSW,258,0.0,-999.0,91,0.00,,,0.00,62,Wunderground v.1.15,2013-01-18 22:22:00,
2013-01-18 14:24:00,33.8,31.5,30.32,WSW,258,0.0,-999.0,91,0.00,,,0.00,53,Wunderground v.1.15,2013-01-18 22:24:00,
2013-01-18 14:26:00,33.8,31.5,30.32,WSW,258,0.0,-999.0,91,0.00,,,0.00,70,Wunderground v.1.15,2013-01-18 22:26:00,
2013-01-18 14:27:00,33.8,31.5,30.32,WSW,258,0.0,-999.0,91,0.00,,,0.00,62,Wunderground v.1.15,2013-01-18 22:27:00,
2013-01-18 14:29:00,33.8,31.5,30.32,WSW,258,0.0,-999.0,91,0.00,,,0.00,58,Wunderground v.1.15,2013-01-18 22:29:00,
2013-01-18 14:31:00,34.0,31.6,30.32,WSW,258,0.0,-999.0,91,0.00,,,0.00,60,Wunderground v.1.15,2013-01-18 22:31:00,
2013-01-18 14:32:00,34.0,31.6,30.32,WSW,258,0.0,-999.0,91,0.00,,,0.00,63,Wunderground v.1.15,2013-01-18 22:32:00,
2013-01-18 14:34:00,34.0,31.6,30.32,WSW,258,0.0,-999.0,91,0.00,,,0.00,63,Wunderground v.1.15,2013-01-18 22:34:00,
2013-01-18 14:37:00,34.0,31.6,30.32,WSW,258,0.0,-999.0,91,0.00,,,0.00,58,Wunderground v.1.15,2013-01-18 22:37:00,
2013-01-18 14:39:00,34.0,31.6,30.32,WSW,258,0.0,-999.0,91,0.00,,,0.00,63,Wunderground v.1.15,2013-01-18 22:39:00,
2013-01-18 14:42:00,34.0,31.6,30.32,WSW,258,0.0,-999.0,91,0.00,,,0.00,55,Wunderground v.1.15,2013-01-18 22:42:00,
2013-01-18 14:43:00,34.0,31.6,30.32,WSW,258,0.0,-999.0,91,0.00,,,0.00,56,Wunderground v.1.15,2013-01-18 22:43:00,
2013-01-18 14:44:00,34.0,31.6,30.32,WSW,258,1.0,-999.0,91,0.00,,,0.00,49,Wunderground v.1.15,2013-01-18 22:44:00,
2013-01-18 14:47:00,34.0,31.6,30.32,WSW,258,0.0,-999.0,91,0.00,,,0.00,51,Wunderground v.1.15,2013-01-18 22:47:00,
2013-01-18 14:48:00,34.0,31.6,30.32,WNW,285,0.0,-999.0,91,0.00,,,0.00,49,Wunderground v.1.15,2013-01-18 22:48:00,
2013-01-18 14:49:00,34.0,31.6,30.32,WNW,285,0.0,-999.0,91,0.00,,,0.00,44,Wunderground v.1.15,2013-01-18 22:49:00,
2013-01-18 14:52:00,34.0,31.6,30.32,WNW,285,0.0,-999.0,91,0.00,,,0.00,51,Wunderground v.1.15,2013-01-18 22:52:00,
2013-01-18 14:53:00,34.0,31.6,30.32,WNW,285,0.0,-999.0,91,0.00,,,0.00,48,Wunderground v.1.15,2013-01-18 22:53:00,
2013-01-18 14:54:00,34.0,31.6,30.32,WNW,285,0.0,-999.0,91,0.00,,,0.00,40,Wunderground v.1.15,2013-01-18 22:54:00,
2013-01-18 14:57:00,33.8,31.5,30.32,WNW,285,0.0,-999.0,91,0.00,,,0.00,40,Wunderground v.1.15,2013-01-18 22:57:00,
2013-01-18 14:58:00,33.8,31.5,30.32,WNW,286,0.0,-999.0,91,0.00,,,0.00,40,Wunderground v.1.15,2013-01-18 22:58:00,
2013-01-18 14:59:00,33.8,31.5,30.32,West,280,0.0,-999.0,91,0.00,,,0.00,39,Wunderground v.1.15,2013-01-18 22:59:00,
2013-01-18 15:02:00,33.8,31.5,30.32,WNW,286,0.0,-999.0,91,0.00,,,0.00,39,Wunderground v.1.15,2013-01-18 23:02:00,
2013-01-18 15:03:00,33.8,31.5,30.32,WNW,285,0.0,-999.0,91,0.00,,,0.00,37,Wunderground v.1.15,2013-01-18 23:03:00,
2013-01-18 15:04:00,33.8,31.5,30.32,WNW,285,0.0,-999.0,91,0.00,,,0.00,37,Wunderground v.1.15,2013-01-18 23:04:00,
2013-01-18 15:05:00,33.8,31.5,30.32,WNW,285,0.0,-999.0,91,0.00,,,0.00,37,Wunderground v.1.15,2013-01-18 23:05:00,
2013-01-18 15:07:00,33.8,31.5,30.32,WNW,285,0.0,-999.0,91,0.00,,,0.00,26,Wunderground v.1.15,2013-01-18 23:07:00,
2013-01-18 15:09:00,33.8,31.5,30.32,WNW,285,0.0,-999.0,91,0.00,,,0.00,26,Wunderground v.1.15,2013-01-18 23:09:00,
2013-01-18 15:10:00,33.8,31.5,30.32,WNW,285,0.0,-999.0,91,0.00,,,0.00,26,Wunderground v.1.15,2013-01-18 23:10:00,
2013-01-18 15:12:00,33.8,31.5,30.32,NW,324,3.0,-999.0,91,0.00,,,0.00,21,Wunderground v.1.15,2013-01-18 23:12:00,
2013-01-18 15:14:00,33.8,31.5,30.32,NNW,340,0.0,-999.0,91,0.00,,,0.00,21,Wunderground v.1.15,2013-01-18 23:14:00,
2013-01-18 15:15:00,33.8,31.5,30.32,NNW,340,0.0,-999.0,91,0.00,,,0.00,21,Wunderground v.1.15,2013-01-18 23:15:00,
2013-01-18 15:17:00,33.8,31.5,30.32,NNW,340,0.0,-999.0,91,0.00,,,0.00,21,Wunderground v.1.15,2013-01-18 23:17:00,
2013-01-18 15:19:00,33.8,31.5,30.32,NNW,340,0.0,-999.0,91,0.00,,,0.00,21,Wunderground v.1.15,2013-01-18 23:19:00,
2013-01-18 15:20:00,33.8,31.5,30.32,NNW,340,0.0,-999.0,91,0.00,,,0.00,21,Wunderground v.1.15,2013-01-18 23:20:00,
2013-01-18 15:23:00,33.8,31.5,30.32,NNW,340,0.0,-999.0,91,0.00,,,0.00,21,Wunderground v.1.15,2013-01-18 23:23:00,
2013-01-18 15:24:00,33.8,31.5,30.32,NNW,340,0.0,-999.0,91,0.00,,,0.00,21,Wunderground v.1.15,2013-01-18 23:24:00,
2013-01-18 15:25:00,33.8,31.5,30.32,NNW,340,0.0,-999.0,91,0.00,,,0.00,21,Wunderground v.1.15,2013-01-18 23:25:00,
2013-01-18 15:28:00,33.8,31.5,30.32,NNW,340,0.0,-999.0,91,0.00,,,0.00,21,Wunderground v.1.15,2013-01-18 23:28:00,
2013-01-18 15:29:00,33.8,31.5,30.32,NNW,340,0.0,-999.0,91,0.00,,,0.00,23,Wunderground v.1.15,2013-01-18 23:29:00,
2013-01-18 15:30:00,33.8,31.5,30.32,NNW,340,0.0,-999.0,91,0.00,,,0.00,23,Wunderground v.1.15,2013-01-18 23:30:00,
2013-01-18 15:31:00,33.8,31.5,30.32,NNW,340,1.0,-999.0,91,0.00,,,0.00,23,Wunderground v.1.15,2013-01-18 23:31:00,
2013-01-18 15:33:00,33.8,31.5,30.32,NNW,340,0.0,-999.0,91,0.00,,,0.00,19,Wunderground v.1.15,2013-01-18 23:33:00,
2013-01-18 15:34:00,33.8,31.5,30.32,NNW,340,0.0,-999.0,91,0.00,,,0.00,19,Wunderground v.1.15,2013-01-18 23:34:00,
2013-01-18 15:36:00,33.8,31.5,30.32,NNW,340,0.0,-999.0,91,0.00,,,0.00,19,Wunderground v.1.15,2013-01-18 23:36:00,
2013-01-18 15:37:00,33.8,31.5,30.32,NNW,340,0.0,-999.0,91,0.00,,,0.00,18,Wunderground v.1.15,2013-01-18 23:37:00,
2013-01-18 15:38:00,33.8,31.5,30.32,NNW,340,0.0,-999.0,91,0.00,,,0.00,18,Wunderground v.1.15,2013-01-18 23:38:00,
2013-01-18 15:40:00,33.8,31.5,30.32,NNW,340,0.0,-999.0,91,0.00,,,0.00,18,Wunderground v.1.15,2013-01-18 23:40:00,
2013-01-18 15:42:00,33.8,31.5,30.32,NNW,340,0.0,-999.0,91,0.00,,,0.00,14,Wunderground v.1.15,2013-01-18 23:42:00,
2013-01-18 15:44:00,33.8,31.5,30.32,NNW,340,0.0,-999.0,91,0.00,,,0.00,14,Wunderground v.1.15,2013-01-18 23:44:00,
2013-01-18 15:45:00,33.8,31.5,30.32,NNW,340,0.0,-999.0,91,0.00,,,0.00,12,Wunderground v.1.15,2013-01-18 23:45:00,
2013-01-18 15:47:00,33.8,31.5,30.32,NNW,340,0.0,-999.0,91,0.00,,,0.00,12,Wunderground v.1.15,2013-01-18 23:47:00,
2013-01-18 15:48:00,34.0,31.6,30.32,NNW,340,1.0,-999.0,91,0.00,,,0.00,12,Wunderground v.1.15,2013-01-18 23:48:00,
2013-01-18 15:49:00,34.0,31.6,30.32,NNW,340,0.0,-999.0,91,0.00,,,0.00,12,Wunderground v.1.15,2013-01-18 23:49:00,
2013-01-18 15:50:00,34.0,31.6,30.32,NNW,340,0.0,-999.0,91,0.00,,,0.00,11,Wunderground v.1.15,2013-01-18 23:50:00,
2013-01-18 15:52:00,34.0,31.6,30.32,NNW,340,0.0,-999.0,91,0.00,,,0.00,11,Wunderground v.1.15,2013-01-18 23:52:00,
2013-01-18 15:53:00,34.0,31.6,30.32,NNW,340,0.0,-999.0,91,0.00,,,0.00,11,Wunderground v.1.15,2013-01-18 23:53:00,
2013-01-18 15:54:00,34.0,31.6,30.32,NNW,340,0.0,-999.0,91,0.00,,,0.00,9,Wunderground v.1.15,2013-01-18 23:54:00,
2013-01-18 15:55:00,34.0,31.6,30.32,NNW,340,0.0,-999.0,91,0.00,,,0.00,9,Wunderground v.1.15,2013-01-18 23:55:00,
2013-01-18 15:58:00,34.0,31.6,30.32,NNW,340,0.0,-999.0,91,0.00,,,0.00,7,Wunderground v.1.15,2013-01-18 23:58:00,
2013-01-18 15:59:00,34.0,31.6,30.32,NNW,340,0.0,-999.0,91,0.00,,,0.00,7,Wunderground v.1.15,2013-01-18 23:59:00,
2013-01-18 16:00:00,34.0,31.6,30.32,NNW,340,0.0,-999.0,91,0.00,,,0.00,7,Wunderground v.1.15,2013-01-19 00:00:00,
2013-01-18 16:03:00,34.0,31.6,30.33,NNW,340,0.0,-999.0,91,0.00,,,0.00,7,Wunderground v.1.15,2013-01-19 00:03:00,
2013-01-18 16:04:00,34.0,31.6,30.33,NNW,340,0.0,-999.0,91,0.00,,,0.00,7,Wunderground v.1.15,2013-01-19 00:04:00,
2013-01-18 16:05:00,34.0,31.6,30.33,NNW,340,0.0,-999.0,91,0.00,,,0.00,7,Wunderground v.1.15,2013-01-19 00:05:00,
2013-01-18 16:08:00,34.1,31.7,30.33,NW,321,0.0,-999.0,91,0.00,,,0.00,7,Wunderground v.1.15,2013-01-19 00:08:00,
2013-01-18 16:09:00,34.1,31.7,30.33,NW,321,0.0,-999.0,91,0.00,,,0.00,7,Wunderground v.1.15,2013-01-19 00:09:00,
2013-01-18 16:10:00,34.1,31.7,30.33,NW,325,1.0,-999.0,91,0.00,,,0.00,5,Wunderground v.1.15,2013-01-19 00:10:00,
2013-01-18 16:14:00,34.1,31.7,30.33,NW,325,0.0,-999.0,91,0.00,,,0.00,5,Wunderground v.1.15,2013-01-19 00:14:00,
2013-01-18 16:15:00,34.1,31.7,30.33,NW,325,0.0,-999.0,91,0.00,,,0.00,5,Wunderground v.1.15,2013-01-19 00:15:00,
2013-01-18 16:19:00,34.1,31.7,30.33,NW,325,0.0,-999.0,91,0.00,,,0.00,0,Wunderground v.1.15,2013-01-19 00:19:00,
2013-01-18 16:20:00,34.1,31.7,30.33,NW,325,0.0,-999.0,91,0.00,,,0.00,0,Wunderground v.1.15,2013-01-19 00:20:00,
2013-01-18 16:24:00,34.1,31.7,30.33,NW,325,0.0,-999.0,91,0.00,,,0.00,0,Wunderground v.1.15,2013-01-19 00:24:00,
2013-01-18 16:25:00,34.1,31.7,30.33,NW,325,0.0,-999.0,91,0.00,,,0.00,0,Wunderground v.1.15,2013-01-19 00:25:00,
2013-01-18 16:26:00,34.1,31.7,30.33,NW,325,0.0,-999.0,91,0.00,,,0.00,0,Wunderground v.1.15,2013-01-19 00:26:00,
2013-01-18 16:30:00,34.1,31.7,30.33,NW,325,0.0,-999.0,91,0.00,,,0.00,0,Wunderground v.1.15,2013-01-19 00:30:00,
2013-01-18 16:31:00,34.1,31.7,30.32,NW,325,0.0,-999.0,91,0.00,,,0.00,0,Wunderground v.1.15,2013-01-19 00:31:00,
2013-01-18 16:35:00,34.1,31.7,30.32,NW,325,0.0,-999.0,91,0.00,,,0.00,0,Wunderground v.1.15,2013-01-19 00:35:00,
2013-01-18 16:36:00,34.1,31.7,30.32,NW,325,0.0,-999.0,91,0.00,,,0.00,0,Wunderground v.1.15,2013-01-19 00:36:00,
2013-01-18 16:37:00,34.1,31.7,30.32,NW,325,0.0,-999.0,91,0.00,,,0.00,0,Wunderground v.1.15,2013-01-19 00:37:00,
2013-01-18 16:40:00,34.1,31.7,30.32,NW,325,0.0,-999.0,91,0.00,,,0.00,0,Wunderground v.1.15,2013-01-19 00:40:00,
2013-01-18 16:41:00,34.1,31.7,30.32,NW,325,0.0,-999.0,91,0.00,,,0.00,0,Wunderground v.1.15,2013-01-19 00:41:00,
2013-01-18 16:42:00,34.1,31.7,30.32,NW,325,0.0,-999.0,91,0.00,,,0.00,0,Wunderground v.1.15,2013-01-19 00:42:00,
2013-01-18 16:45:00,34.1,31.7,30.32,NW,325,0.0,-999.0,91,0.00,,,0.00,0,Wunderground v.1.15,2013-01-19 00:45:00,
2013-01-18 16:46:00,34.1,31.7,30.32,NW,325,0.0,-999.0,91,0.00,,,0.00,0,Wunderground v.1.15,2013-01-19 00:46:00,
2013-01-18 16:48:00,34.1,31.7,30.32,NW,325,0.0,-999.0,91,0.00,,,0.00,0,Wunderground v.1.15,2013-01-19 00:48:00,
2013-01-18 16:50:00,34.1,31.7,30.32,NW,325,0.0,-999.0,91,0.00,,,0.00,0,Wunderground v.1.15,2013-01-19 00:50:00,
2013-01-18 16:53:00,34.3,31.9,30.32,NW,325,0.0,-999.0,91,0.00,,,0.00,0,Wunderground v.1.15,2013-01-19 00:53:00,
2013-01-18 16:54:00,34.1,31.7,30.32,NW,325,0.0,-999.0,91,0.00,,,0.00,0,Wunderground v.1.15,2013-01-19 00:54:00,
2013-01-18 16:55:00,34.3,31.9,30.32,NW,325,0.0,-999.0,91,0.00,,,0.00,0,Wunderground v.1.15,2013-01-19 00:55:00,
2013-01-18 16:59:00,34.3,31.9,30.32,NW,325,0.0,-999.0,91,0.00,,,0.00,0,Wunderground v.1.15,2013-01-19 00:59:00,
2013-01-18 17:01:00,34.3,31.9,30.32,NW,325,0.0,-999.0,91,0.00,,,0.00,0,Wunderground v.1.15,2013-01-19 01:01:00,
2013-01-18 17:04:00,34.3,31.9,30.32,NW,325,0.0,-999.0,91,0.00,,,0.00,0,Wunderground v.1.15,2013-01-19 01:04:00,
2013-01-18 17:06:00,34.3,31.9,30.32,NW,325,0.0,-999.0,91,0.00,,,0.00,0,Wunderground v.1.15,2013-01-19 01:06:00,
2013-01-18 17:09:00,34.3,31.9,30.32,NW,325,0.0,-999.0,91,0.00,,,0.00,0,Wunderground v.1.15,2013-01-19 01:09:00,
2013-01-18 17:10:00,34.3,31.9,30.32,NW,325,0.0,-999.0,91,0.00,,,0.00,0,Wunderground v.1.15,2013-01-19 01:10:00,
2013-01-18 17:12:00,34.3,31.9,30.32,NW,325,0.0,-999.0,91,0.00,,,0.00,0,Wunderground v.1.15,2013-01-19 01:12:00,
2013-01-18 17:14:00,34.3,31.9,30.32,NW,325,0.0,-999.0,91,0.00,,,0.00,0,Wunderground v.1.15,2013-01-19 01:14:00,
2013-01-18 17:15:00,34.3,31.9,30.32,NW,325,0.0,-999.0,91,0.00,,,0.00,0,Wunderground v.1.15,2013-01-19 01:15:00,
2013-01-18 17:17:00,34.3,31.9,30.32,NW,325,0.0,-999.0,91,0.00,,,0.00,0,Wunderground v.1.15,2013-01-19 01:17:00,
2013-01-18 17:19:00,34.3,31.9,30.32,NW,325,0.0,-999.0,91,0.00,,,0.00,0,Wunderground v.1.15,2013-01-19 01:19:00,
2013-01-18 17:20:00,34.3,31.9,30.32,NW,325,0.0,-999.0,91,0.00,,,0.00,0,Wunderground v.1.15,2013-01-19 01:20:00,
2013-01-18 17:22:00,34.3,31.9,30.32,NW,325,0.0,-999.0,91,0.00,,,0.00,0,Wunderground v.1.15,2013-01-19 01:22:00,
2013-01-18 17:24:00,34.3,31.9,30.32,NW,325,0.0,-999.0,91,0.00,,,0.00,0,Wunderground v.1.15,2013-01-19 01:24:00,
2013-01-18 17:25:00,34.3,31.9,30.32,NW,325,0.0,-999.0,91,0.00,,,0.00,0,Wunderground v.1.15,2013-01-19 01:25:00,
2013-01-18 17:28:00,34.3,31.9,30.32,NW,325,0.0,-999.0,91,0.00,,,0.00,0,Wunderground v.1.15,2013-01-19 01:28:00,
2013-01-18 17:29:00,34.3,31.9,30.32,NW,325,0.0,-999.0,91,0.00,,,0.00,0,Wunderground v.1.15,2013-01-19 01:29:00,
2013-01-18 17:30:00,34.3,31.9,30.33,NW,325,0.0,-999.0,91,0.00,,,0.00,0,Wunderground v.1.15,2013-01-19 01:30:00,
2013-01-18 17:33:00,34.3,31.9,30.33,NW,325,0.0,-999.0,91,0.00,,,0.00,0,Wunderground v.1.15,2013-01-19 01:33:00,
2013-01-18 17:35:00,34.3,31.9,30.33,NW,325,0.0,-999.0,91,0.00,,,0.00,0,Wunderground v.1.15,2013-01-19 01:35:00,
2013-01-18 17:36:00,34.3,31.9,30.33,NW,325,0.0,-999.0,91,0.00,,,0.00,0,Wunderground v.1.15,2013-01-19 01:36:00,
2013-01-18 17:38:00,34.3,31.9,30.33,NW,325,0.0,-999.0,91,0.00,,,0.00,0,Wunderground v.1.15,2013-01-19 01:38:00,
2013-01-18 17:40:00,34.3,31.9,30.33,NW,325,0.0,-999.0,91,0.00,,,0.00,0,Wunderground v.1.15,2013-01-19 01:40:00,
2013-01-18 17:41:00,34.3,31.9,30.33,NW,325,0.0,-999.0,91,0.00,,,0.00,0,Wunderground v.1.15,2013-01-19 01:41:00,
2013-01-18 17:42:00,34.3,31.9,30.33,NW,325,0.0,-999.0,91,0.00,,,0.00,0,Wunderground v.1.15,2013-01-19 01:42:00,
2013-01-18 17:44:00,34.3,31.9,30.33,NW,325,0.0,-999.0,91,0.00,,,0.00,0,Wunderground v.1.15,2013-01-19 01:44:00,
2013-01-18 17:45:00,34.3,31.9,30.33,NW,325,0.0,-999.0,91,0.00,,,0.00,0,Wunderground v.1.15,2013-01-19 01:45:00,
2013-01-18 17:46:00,34.3,31.9,30.33,NW,325,0.0,-999.0,91,0.00,,,0.00,0,Wunderground v.1.15,2013-01-19 01:46:00,
2013-01-18 17:47:00,34.3,31.9,30.33,NW,325,0.0,-999.0,91,0.00,,,0.00,0,Wunderground v.1.15,2013-01-19 01:47:00,
2013-01-18 17:49:00,34.3,31.9,30.33,NW,325,0.0,-999.0,91,0.00,,,0.00,0,Wunderground v.1.15,2013-01-19 01:49:00,
2013-01-18 17:50:00,34.3,31.9,30.33,NW,325,0.0,-999.0,91,0.00,,,0.00,0,Wunderground v.1.15,2013-01-19 01:50:00,
2013-01-18 17:52:00,34.3,31.9,30.33,NW,325,0.0,-999.0,91,0.00,,,0.00,0,Wunderground v.1.15,2013-01-19 01:52:00,
2013-01-18 17:54:00,34.3,31.9,30.33,NW,325,0.0,-999.0,91,0.00,,,0.00,0,Wunderground v.1.15,2013-01-19 01:54:00,
2013-01-18 17:55:00,34.3,31.9,30.33,NW,325,0.0,-999.0,91,0.00,,,0.00,0,Wunderground v.1.15,2013-01-19 01:55:00,
2013-01-18 17:57:00,34.3,31.9,30.33,NW,325,0.0,-999.0,91,0.00,,,0.00,0,Wunderground v.1.15,2013-01-19 01:57:00,
2013-01-18 18:00:00,34.3,31.9,30.33,NW,325,0.0,-999.0,91,0.00,,,0.00,0,Wunderground v.1.15,2013-01-19 02:00:00,
2013-01-18 18:02:00,34.3,31.9,30.32,NW,325,0.0,-999.0,91,0.00,,,0.00,0,Wunderground v.1.15,2013-01-19 02:02:00,
2013-01-18 18:03:00,34.3,31.9,30.32,NW,325,0.0,-999.0,91,0.00,,,0.00,0,Wunderground v.1.15,2013-01-19 02:03:00,
2013-01-18 18:06:00,34.3,31.9,30.32,NW,325,0.0,-999.0,91,0.00,,,0.00,0,Wunderground v.1.15,2013-01-19 02:06:00,
2013-01-18 18:07:00,34.3,31.9,30.32,NW,325,0.0,-999.0,91,0.00,,,0.00,0,Wunderground v.1.15,2013-01-19 02:07:00,
2013-01-18 18:08:00,34.3,31.9,30.32,NW,325,0.0,-999.0,91,0.00,,,0.00,0,Wunderground v.1.15,2013-01-19 02:08:00,
2013-01-18 18:11:00,34.3,31.9,30.32,NW,325,0.0,-999.0,91,0.00,,,0.00,0,Wunderground v.1.15,2013-01-19 02:11:00,
2013-01-18 18:12:00,34.3,31.9,30.32,NW,325,0.0,-999.0,91,0.00,,,0.00,0,Wunderground v.1.15,2013-01-19 02:12:00,
2013-01-18 18:13:00,34.3,31.9,30.32,NW,325,0.0,-999.0,91,0.00,,,0.00,0,Wunderground v.1.15,2013-01-19 02:13:00,
2013-01-18 18:16:00,34.3,31.9,30.32,NW,325,0.0,-999.0,91,0.00,,,0.00,0,Wunderground v.1.15,2013-01-19 02:16:00,
2013-01-18 18:17:00,34.3,31.9,30.32,NW,325,0.0,-999.0,91,0.00,,,0.00,0,Wunderground v.1.15,2013-01-19 02:17:00,
2013-01-18 18:18:00,34.3,31.9,30.32,NW,325,0.0,-999.0,91,0.00,,,0.00,0,Wunderground v.1.15,2013-01-19 02:18:00,
2013-01-18 18:22:00,34.3,31.9,30.32,NW,325,0.0,-999.0,91,0.00,,,0.00,0,Wunderground v.1.15,2013-01-19 02:22:00,
2013-01-18 18:23:00,34.3,31.9,30.32,NW,325,0.0,-999.0,91,0.00,,,0.00,0,Wunderground v.1.15,2013-01-19 02:23:00,
2013-01-18 18:27:00,34.3,31.9,30.32,NW,325,0.0,-999.0,91,0.00,,,0.00,0,Wunderground v.1.15,2013-01-19 02:27:00,
2013-01-18 18:28:00,34.3,31.9,30.32,NW,325,0.0,-999.0,91,0.00,,,0.00,0,Wunderground v.1.15,2013-01-19 02:28:00,
2013-01-18 18:33:00,34.3,31.9,30.32,NW,325,0.0,-999.0,91,0.00,,,0.00,0,Wunderground v.1.15,2013-01-19 02:33:00,
2013-01-18 18:34:00,34.3,31.9,30.32,NW,325,0.0,-999.0,91,0.00,,,0.00,0,Wunderground v.1.15,2013-01-19 02:34:00,
2013-01-18 18:38:00,34.1,31.7,30.32,NW,325,0.0,-999.0,91,0.00,,,0.00,0,Wunderground v.1.15,2013-01-19 02:38:00,
2013-01-18 18:39:00,34.1,31.7,30.32,NW,325,0.0,-999.0,91,0.00,,,0.00,0,Wunderground v.1.15,2013-01-19 02:39:00,
2013-01-18 18:44:00,34.1,31.7,30.32,NW,325,0.0,-999.0,91,0.00,,,0.00,0,Wunderground v.1.15,2013-01-19 02:44:00,
2013-01-18 18:45:00,34.1,31.7,30.32,NW,325,0.0,-999.0,91,0.00,,,0.00,0,Wunderground v.1.15,2013-01-19 02:45:00,
2013-01-18 18:49:00,34.3,31.9,30.32,NW,325,0.0,-999.0,91,0.00,,,0.00,0,Wunderground v.1.15,2013-01-19 02:49:00,
2013-01-18 18:50:00,34.3,31.9,30.32,NW,325,0.0,-999.0,91,0.00,,,0.00,0,Wunderground v.1.15,2013-01-19 02:50:00,
2013-01-18 18:54:00,34.3,31.9,30.32,NW,325,0.0,-999.0,91,0.00,,,0.00,0,Wunderground v.1.15,2013-01-19 02:54:00,
2013-01-18 18:55:00,34.3,31.9,30.32,NW,325,0.0,-999.0,91,0.00,,,0.00,0,Wunderground v.1.15,2013-01-19 02:55:00,
2013-01-18 18:59:00,34.3,31.9,30.32,NW,325,0.0,-999.0,91,0.00,,,0.00,0,Wunderground v.1.15,2013-01-19 02:59:00,
2013-01-18 19:00:00,34.3,31.9,30.32,NW,325,0.0,-999.0,91,0.00,,,0.00,0,Wunderground v.1.15,2013-01-19 03:00:00,
2013-01-18 19:04:00,34.3,31.9,30.32,NW,325,0.0,-999.0,91,0.00,,,0.00,0,Wunderground v.1.15,2013-01-19 03:04:00,
2013-01-18 19:05:00,34.3,31.9,30.32,NW,325,0.0,-999.0,91,0.00,,,0.00,0,Wunderground v.1.15,2013-01-19 03:05:00,
2013-01-18 19:06:00,34.3,31.9,30.32,NW,325,0.0,-999.0,91,0.00,,,0.00,0,Wunderground v.1.15,2013-01-19 03:06:00,
2013-01-18 19:10:00,34.3,31.9,30.32,NW,325,0.0,-999.0,91,0.00,,,0.00,0,Wunderground v.1.15,2013-01-19 03:10:00,
2013-01-18 19:11:00,34.4,32.0,30.32,NW,325,0.0,-999.0,91,0.00,,,0.00,0,Wunderground v.1.15,2013-01-19 03:11:00,
2013-01-18 19:15:00,34.4,32.0,30.32,NW,325,0.0,-999.0,91,0.00,,,0.00,0,Wunderground v.1.15,2013-01-19 03:15:00,
2013-01-18 19:16:00,34.4,32.0,30.33,NW,325,0.0,-999.0,91,0.00,,,0.00,0,Wunderground v.1.15,2013-01-19 03:16:00,
2013-01-18 19:20:00,34.4,32.0,30.33,NW,325,0.0,-999.0,91,0.00,,,0.00,0,Wunderground v.1.15,2013-01-19 03:20:00,
2013-01-18 19:21:00,34.4,32.0,30.33,NW,325,0.0,-999.0,91,0.00,,,0.00,0,Wunderground v.1.15,2013-01-19 03:21:00,
2013-01-18 19:22:00,34.4,32.0,30.33,NW,325,0.0,-999.0,91,0.00,,,0.00,0,Wunderground v.1.15,2013-01-19 03:22:00,
2013-01-18 19:26:00,34.4,32.0,30.33,NW,325,0.0,-999.0,91,0.00,,,0.00,0,Wunderground v.1.15,2013-01-19 03:26:00,
2013-01-18 19:27:00,34.4,32.0,30.33,NW,325,0.0,-999.0,91,0.00,,,0.00,0,Wunderground v.1.15,2013-01-19 03:27:00,
2013-01-18 19:31:00,34.4,32.0,30.33,NW,325,0.0,-999.0,91,0.00,,,0.00,0,Wunderground v.1.15,2013-01-19 03:31:00,
2013-01-18 19:32:00,34.4,32.0,30.33,NW,325,0.0,-999.0,91,0.00,,,0.00,0,Wunderground v.1.15,2013-01-19 03:32:00,
2013-01-18 19:33:00,34.4,32.0,30.33,NW,325,0.0,-999.0,91,0.00,,,0.00,0,Wunderground v.1.15,2013-01-19 03:33:00,
2013-01-18 19:37:00,34.4,32.0,30.33,NW,325,0.0,-999.0,91,0.00,,,0.00,0,Wunderground v.1.15,2013-01-19 03:37:00,
2013-01-18 19:39:00,34.4,32.0,30.33,NW,325,0.0,-999.0,91,0.00,,,0.00,0,Wunderground v.1.15,2013-01-19 03:39:00,
2013-01-18 19:42:00,34.3,31.9,30.33,NW,320,0.0,-999.0,91,0.00,,,0.00,0,Wunderground v.1.15,2013-01-19 03:42:00,
2013-01-18 19:43:00,34.3,31.9,30.33,NW,325,0.0,-999.0,91,0.00,,,0.00,0,Wunderground v.1.15,2013-01-19 03:43:00,
2013-01-18 19:44:00,34.3,31.9,30.33,NW,325,0.0,-999.0,91,0.00,,,0.00,0,Wunderground v.1.15,2013-01-19 03:44:00,
2013-01-18 19:47:00,34.3,31.9,30.33,NW,325,0.0,-999.0,91,0.00,,,0.00,0,Wunderground v.1.15,2013-01-19 03:47:00,
2013-01-18 19:48:00,34.3,31.9,30.33,NW,325,0.0,-999.0,91,0.00,,,0.00,0,Wunderground v.1.15,2013-01-19 03:48:00,
2013-01-18 19:49:00,34.3,31.9,30.33,NW,325,0.0,-999.0,91,0.00,,,0.00,0,Wunderground v.1.15,2013-01-19 03:49:00,
2013-01-18 19:52:00,34.3,31.9,30.33,NW,325,0.0,-999.0,91,0.00,,,0.00,0,Wunderground v.1.15,2013-01-19 03:52:00,
2013-01-18 19:53:00,34.3,31.9,30.33,NW,325,0.0,-999.0,91,0.00,,,0.00,0,Wunderground v.1.15,2013-01-19 03:53:00,
2013-01-18 19:54:00,34.3,31.9,30.33,NW,325,0.0,-999.0,91,0.00,,,0.00,0,Wunderground v.1.15,2013-01-19 03:54:00,
2013-01-18 19:57:00,34.1,31.7,30.33,NW,325,0.0,-999.0,91,0.00,,,0.00,0,Wunderground v.1.15,2013-01-19 03:57:00,
2013-01-18 19:58:00,34.1,31.7,30.33,NW,325,0.0,-999.0,91,0.00,,,0.00,0,Wunderground v.1.15,2013-01-19 03:58:00,
2013-01-18 20:00:00,34.1,31.7,30.33,NW,325,0.0,-999.0,91,0.00,,,0.00,0,Wunderground v.1.15,2013-01-19 04:00:00,
2013-01-18 20:03:00,34.1,31.7,30.33,NW,325,0.0,-999.0,91,0.00,,,0.00,0,Wunderground v.1.15,2013-01-19 04:03:00,
2013-01-18 20:04:00,34.1,31.7,30.33,NW,325,0.0,-999.0,91,0.00,,,0.00,0,Wunderground v.1.15,2013-01-19 04:04:00,
2013-01-18 20:07:00,34.1,31.7,30.33,NW,325,0.0,-999.0,91,0.00,,,0.00,0,Wunderground v.1.15,2013-01-19 04:07:00,
2013-01-18 20:08:00,34.1,31.7,30.33,NW,325,0.0,-999.0,91,0.00,,,0.00,0,Wunderground v.1.15,2013-01-19 04:08:00,
2013-01-18 20:09:00,34.1,31.7,30.33,NW,325,0.0,-999.0,91,0.00,,,0.00,0,Wunderground v.1.15,2013-01-19 04:09:00,
2013-01-18 20:12:00,34.1,31.7,30.33,NW,325,0.0,-999.0,91,0.00,,,0.00,0,Wunderground v.1.15,2013-01-19 04:12:00,
2013-01-18 20:13:00,34.0,31.6,30.33,NW,325,0.0,-999.0,91,0.00,,,0.00,0,Wunderground v.1.15,2013-01-19 04:13:00,
2013-01-18 20:14:00,34.0,31.6,30.33,NW,325,0.0,-999.0,91,0.00,,,0.00,0,Wunderground v.1.15,2013-01-19 04:14:00,
2013-01-18 20:17:00,34.0,31.6,30.33,NW,325,0.0,-999.0,91,0.00,,,0.00,0,Wunderground v.1.15,2013-01-19 04:17:00,
2013-01-18 20:18:00,34.0,31.6,30.33,NW,325,0.0,-999.0,91,0.00,,,0.00,0,Wunderground v.1.15,2013-01-19 04:18:00,
2013-01-18 20:19:00,34.0,31.6,30.33,NW,325,0.0,-999.0,91,0.00,,,0.00,0,Wunderground v.1.15,2013-01-19 04:19:00,
2013-01-18 20:20:00,34.0,31.6,30.33,NW,325,0.0,-999.0,91,0.00,,,0.00,0,Wunderground v.1.15,2013-01-19 04:20:00,
2013-01-18 20:23:00,34.0,31.6,30.33,NW,325,0.0,-999.0,91,0.00,,,0.00,0,Wunderground v.1.15,2013-01-19 04:23:00,
2013-01-18 20:24:00,34.0,31.6,30.33,NW,325,0.0,-999.0,91,0.00,,,0.00,0,Wunderground v.1.15,2013-01-19 04:24:00,
2013-01-18 20:25:00,34.0,31.6,30.33,NW,325,0.0,-999.0,91,0.00,,,0.00,0,Wunderground v.1.15,2013-01-19 04:25:00,
2013-01-18 20:28:00,34.0,31.6,30.33,NW,325,0.0,-999.0,91,0.00,,,0.00,0,Wunderground v.1.15,2013-01-19 04:28:00,
2013-01-18 20:29:00,34.0,31.6,30.33,NW,325,0.0,-999.0,91,0.00,,,0.00,0,Wunderground v.1.15,2013-01-19 04:29:00,
2013-01-18 20:30:00,34.0,31.6,30.33,NW,325,0.0,-999.0,91,0.00,,,0.00,0,Wunderground v.1.15,2013-01-19 04:30:00,
2013-01-18 20:33:00,33.8,31.5,30.34,NW,325,0.0,-999.0,91,0.00,,,0.00,0,Wunderground v.1.15,2013-01-19 04:33:00,
2013-01-18 20:34:00,33.8,31.5,30.34,NW,325,0.0,-999.0,91,0.00,,,0.00,0,Wunderground v.1.15,2013-01-19 04:34:00,
2013-01-18 20:35:00,33.8,31.5,30.34,NW,325,0.0,-999.0,91,0.00,,,0.00,0,Wunderground v.1.15,2013-01-19 04:35:00,
2013-01-18 20:38:00,33.8,31.5,30.34,NW,325,0.0,-999.0,91,0.00,,,0.00,0,Wunderground v.1.15,2013-01-19 04:38:00,
2013-01-18 20:39:00,33.8,31.5,30.34,NW,325,0.0,-999.0,91,0.00,,,0.00,0,Wunderground v.1.15,2013-01-19 04:39:00,
2013-01-18 20:40:00,33.8,31.5,30.34,NW,325,0.0,-999.0,91,0.00,,,0.00,0,Wunderground v.1.15,2013-01-19 04:40:00,
2013-01-18 20:44:00,33.7,31.4,30.34,NW,325,0.0,-999.0,91,0.00,,,0.00,0,Wunderground v.1.15,2013-01-19 04:44:00,
2013-01-18 20:45:00,33.7,31.4,30.34,NW,325,0.0,-999.0,91,0.00,,,0.00,0,Wunderground v.1.15,2013-01-19 04:45:00,
2013-01-18 20:49:00,33.7,31.4,30.34,NW,325,0.0,-999.0,91,0.00,,,0.00,0,Wunderground v.1.15,2013-01-19 04:49:00,
2013-01-18 20:50:00,33.7,31.4,30.34,NW,325,0.0,-999.0,91,0.00,,,0.00,0,Wunderground v.1.15,2013-01-19 04:50:00,
2013-01-18 20:51:00,33.7,31.4,30.34,NW,325,0.0,-999.0,91,0.00,,,0.00,0,Wunderground v.1.15,2013-01-19 04:51:00,
2013-01-18 20:54:00,33.7,31.4,30.34,NW,325,0.0,-999.0,91,0.00,,,0.00,0,Wunderground v.1.15,2013-01-19 04:54:00,
2013-01-18 20:55:00,33.7,31.4,30.34,NW,325,0.0,-999.0,91,0.00,,,0.00,0,Wunderground v.1.15,2013-01-19 04:55:00,
2013-01-18 20:56:00,33.7,31.4,30.34,NW,325,0.0,-999.0,91,0.00,,,0.00,0,Wunderground v.1.15,2013-01-19 04:56:00,
2013-01-18 21:00:00,33.7,31.4,30.34,NW,325,0.0,-999.0,91,0.00,,,0.00,0,Wunderground v.1.15,2013-01-19 05:00:00,
2013-01-18 21:01:00,33.7,31.4,30.34,NW,325,0.0,-999.0,91,0.00,,,0.00,0,Wunderground v.1.15,2013-01-19 05:01:00,
2013-01-18 21:03:00,33.5,31.2,30.34,NW,325,0.0,-999.0,91,0.00,,,0.00,0,Wunderground v.1.15,2013-01-19 05:03:00,
2013-01-18 21:05:00,33.5,31.2,30.34,NW,325,0.0,-999.0,91,0.00,,,0.00,0,Wunderground v.1.15,2013-01-19 05:05:00,
2013-01-18 21:06:00,33.5,31.2,30.34,NW,325,0.0,-999.0,91,0.00,,,0.00,0,Wunderground v.1.15,2013-01-19 05:06:00,
2013-01-18 21:07:00,33.5,31.2,30.34,NW,325,0.0,-999.0,91,0.00,,,0.00,0,Wunderground v.1.15,2013-01-19 05:07:00,
2013-01-18 21:09:00,33.5,31.2,30.34,NW,325,0.0,-999.0,91,0.00,,,0.00,0,Wunderground v.1.15,2013-01-19 05:09:00,
2013-01-18 21:10:00,33.5,31.2,30.34,NW,325,0.0,-999.0,91,0.00,,,0.00,0,Wunderground v.1.15,2013-01-19 05:10:00,
2013-01-18 21:11:00,33.5,31.2,30.34,NW,325,0.0,-999.0,91,0.00,,,0.00,0,Wunderground v.1.15,2013-01-19 05:11:00,
2013-01-18 21:12:00,33.5,31.2,30.34,NW,325,0.0,-999.0,91,0.00,,,0.00,0,Wunderground v.1.15,2013-01-19 05:12:00,
2013-01-18 21:14:00,33.5,31.2,30.34,NW,325,0.0,-999.0,91,0.00,,,0.00,0,Wunderground v.1.15,2013-01-19 05:14:00,
2013-01-18 21:16:00,33.5,31.2,30.34,NW,325,0.0,-999.0,91,0.00,,,0.00,0,Wunderground v.1.15,2013-01-19 05:16:00,
2013-01-18 21:17:00,33.5,31.2,30.34,NW,325,0.0,-999.0,91,0.00,,,0.00,0,Wunderground v.1.15,2013-01-19 05:17:00,
2013-01-18 21:18:00,33.5,31.2,30.34,NW,325,0.0,-999.0,91,0.00,,,0.00,0,Wunderground v.1.15,2013-01-19 05:18:00,
2013-01-18 21:20:00,33.5,31.2,30.34,NW,325,0.0,-999.0,91,0.00,,,0.00,0,Wunderground v.1.15,2013-01-19 05:20:00,
2013-01-18 21:21:00,33.5,31.2,30.34,NW,325,0.0,-999.0,91,0.00,,,0.00,0,Wunderground v.1.15,2013-01-19 05:21:00,
2013-01-18 21:22:00,33.5,31.2,30.34,NW,325,0.0,-999.0,91,0.00,,,0.00,0,Wunderground v.1.15,2013-01-19 05:22:00,
2013-01-18 21:23:00,33.5,31.2,30.34,NW,325,0.0,-999.0,91,0.00,,,0.00,0,Wunderground v.1.15,2013-01-19 05:23:00,
2013-01-18 21:25:00,33.5,31.2,30.34,NW,325,0.0,-999.0,91,0.00,,,0.00,0,Wunderground v.1.15,2013-01-19 05:25:00,
2013-01-18 21:26:00,33.5,31.2,30.34,NW,325,0.0,-999.0,91,0.00,,,0.00,0,Wunderground v.1.15,2013-01-19 05:26:00,
2013-01-18 21:27:00,33.5,31.2,30.34,NW,325,0.0,-999.0,91,0.00,,,0.00,0,Wunderground v.1.15,2013-01-19 05:27:00,
2013-01-18 21:28:00,33.5,31.2,30.34,NW,325,0.0,-999.0,91,0.00,,,0.00,0,Wunderground v.1.15,2013-01-19 05:28:00,
2013-01-18 21:30:00,33.5,31.2,30.34,NW,325,0.0,-999.0,91,0.00,,,0.00,0,Wunderground v.1.15,2013-01-19 05:30:00,
2013-01-18 21:32:00,33.5,31.2,30.35,NW,325,0.0,-999.0,91,0.00,,,0.00,0,Wunderground v.1.15,2013-01-19 05:32:00,
2013-01-18 21:34:00,33.5,31.2,30.35,NW,325,0.0,-999.0,91,0.00,,,0.00,0,Wunderground v.1.15,2013-01-19 05:34:00,
2013-01-18 21:36:00,33.5,31.2,30.35,NW,325,0.0,-999.0,91,0.00,,,0.00,0,Wunderground v.1.15,2013-01-19 05:36:00,
2013-01-18 21:37:00,33.5,31.2,30.35,NW,325,0.0,-999.0,91,0.00,,,0.00,0,Wunderground v.1.15,2013-01-19 05:37:00,
2013-01-18 21:38:00,33.5,31.2,30.35,NW,325,0.0,-999.0,91,0.00,,,0.00,0,Wunderground v.1.15,2013-01-19 05:38:00,
2013-01-18 21:39:00,33.5,31.2,30.35,NW,325,0.0,-999.0,91,0.00,,,0.00,0,Wunderground v.1.15,2013-01-19 05:39:00,
2013-01-18 21:41:00,33.5,31.2,30.35,NW,325,0.0,-999.0,91,0.00,,,0.00,0,Wunderground v.1.15,2013-01-19 05:41:00,
2013-01-18 21:42:00,33.5,31.2,30.35,NW,325,0.0,-999.0,91,0.00,,,0.00,0,Wunderground v.1.15,2013-01-19 05:42:00,
2013-01-18 21:43:00,33.5,31.2,30.35,NW,325,0.0,-999.0,91,0.00,,,0.00,0,Wunderground v.1.15,2013-01-19 05:43:00,
2013-01-18 21:45:00,33.5,31.2,30.35,NW,325,0.0,-999.0,91,0.00,,,0.00,0,Wunderground v.1.15,2013-01-19 05:45:00,
2013-01-18 21:47:00,33.5,31.2,30.35,NW,325,0.0,-999.0,91,0.00,,,0.00,0,Wunderground v.1.15,2013-01-19 05:47:00,
2013-01-18 21:48:00,33.5,31.2,30.35,NW,325,0.0,-999.0,91,0.00,,,0.00,0,Wunderground v.1.15,2013-01-19 05:48:00,
2013-01-18 21:49:00,33.5,31.2,30.35,NW,325,0.0,-999.0,91,0.00,,,0.00,0,Wunderground v.1.15,2013-01-19 05:49:00,
2013-01-18 21:50:00,33.5,31.2,30.35,NW,325,0.0,-999.0,91,0.00,,,0.00,0,Wunderground v.1.15,2013-01-19 05:50:00,
2013-01-18 21:52:00,33.5,31.2,30.35,NW,325,0.0,-999.0,91,0.00,,,0.00,0,Wunderground v.1.15,2013-01-19 05:52:00,
2013-01-18 21:54:00,33.5,31.2,30.35,NW,325,0.0,-999.0,91,0.00,,,0.00,0,Wunderground v.1.15,2013-01-19 05:54:00,
2013-01-18 21:55:00,33.5,31.2,30.35,NW,325,0.0,-999.0,91,0.00,,,0.00,0,Wunderground v.1.15,2013-01-19 05:55:00,
2013-01-18 21:57:00,33.4,31.1,30.35,NW,325,0.0,-999.0,91,0.00,,,0.00,0,Wunderground v.1.15,2013-01-19 05:57:00,
2013-01-18 21:59:00,33.4,31.1,30.35,NW,325,0.0,-999.0,91,0.00,,,0.00,0,Wunderground v.1.15,2013-01-19 05:59:00,
2013-01-18 22:00:00,33.4,31.1,30.36,NW,325,0.0,-999.0,91,0.00,,,0.00,0,Wunderground v.1.15,2013-01-19 06:00:00,
2013-01-18 22:01:00,33.4,31.1,30.36,NW,325,0.0,-999.0,91,0.00,,,0.00,0,Wunderground v.1.15,2013-01-19 06:01:00,
2013-01-18 22:02:00,33.4,31.1,30.36,NW,325,0.0,-999.0,91,0.00,,,0.00,0,Wunderground v.1.15,2013-01-19 06:02:00,
2013-01-18 22:05:00,33.4,31.1,30.36,NW,325,0.0,-999.0,91,0.00,,,0.00,0,Wunderground v.1.15,2013-01-19 06:05:00,
2013-01-18 22:06:00,33.4,31.1,30.36,NW,325,0.0,-999.0,91,0.00,,,0.00,0,Wunderground v.1.15,2013-01-19 06:06:00,
2013-01-18 22:07:00,33.4,31.1,30.36,NW,325,0.0,-999.0,91,0.00,,,0.00,0,Wunderground v.1.15,2013-01-19 06:07:00,
2013-01-18 22:10:00,33.4,31.1,30.36,NW,325,0.0,-999.0,91,0.00,,,0.00,0,Wunderground v.1.15,2013-01-19 06:10:00,
2013-01-18 22:11:00,33.4,31.1,30.36,NW,325,0.0,-999.0,91,0.00,,,0.00,0,Wunderground v.1.15,2013-01-19 06:11:00,
2013-01-18 22:12:00,33.4,31.1,30.36,NW,325,0.0,-999.0,91,0.00,,,0.00,0,Wunderground v.1.15,2013-01-19 06:12:00,
2013-01-18 22:15:00,33.3,31.0,30.36,NW,325,0.0,-999.0,91,0.00,,,0.00,0,Wunderground v.1.15,2013-01-19 06:15:00,
2013-01-18 22:16:00,33.3,31.0,30.36,NW,325,0.0,-999.0,91,0.00,,,0.00,0,Wunderground v.1.15,2013-01-19 06:16:00,
2013-01-18 22:17:00,33.3,31.0,30.36,NW,325,0.0,-999.0,91,0.00,,,0.00,0,Wunderground v.1.15,2013-01-19 06:17:00,
2013-01-18 22:21:00,33.3,31.0,30.36,NW,325,0.0,-999.0,91,0.00,,,0.00,0,Wunderground v.1.15,2013-01-19 06:21:00,
2013-01-18 22:23:00,33.3,31.0,30.36,NW,325,0.0,-999.0,91,0.00,,,0.00,0,Wunderground v.1.15,2013-01-19 06:23:00,
2013-01-18 22:24:00,33.3,31.0,30.36,NW,325,0.0,-999.0,91,0.00,,,0.00,0,Wunderground v.1.15,2013-01-19 06:24:00,
2013-01-18 22:26:00,33.1,30.8,30.36,NW,325,0.0,-999.0,91,0.00,,,0.00,0,Wunderground v.1.15,2013-01-19 06:26:00,
2013-01-18 22:28:00,33.1,30.8,30.36,NW,325,0.0,-999.0,91,0.00,,,0.00,0,Wunderground v.1.15,2013-01-19 06:28:00,
2013-01-18 22:29:00,33.1,30.8,30.36,NW,325,0.0,-999.0,91,0.00,,,0.00,0,Wunderground v.1.15,2013-01-19 06:29:00,
2013-01-18 22:31:00,33.1,30.8,30.36,NW,325,0.0,-999.0,91,0.00,,,0.00,0,Wunderground v.1.15,2013-01-19 06:31:00,
2013-01-18 22:33:00,33.1,30.8,30.36,NW,325,0.0,-999.0,91,0.00,,,0.00,0,Wunderground v.1.15,2013-01-19 06:33:00,
2013-01-18 22:34:00,33.1,30.8,30.36,NW,325,0.0,-999.0,91,0.00,,,0.00,0,Wunderground v.1.15,2013-01-19 06:34:00,
2013-01-18 22:37:00,33.1,30.8,30.36,NW,325,0.0,-999.0,91,0.00,,,0.00,0,Wunderground v.1.15,2013-01-19 06:37:00,
2013-01-18 22:39:00,33.1,30.8,30.36,NW,325,0.0,-999.0,91,0.00,,,0.00,0,Wunderground v.1.15,2013-01-19 06:39:00,
2013-01-18 22:42:00,33.1,30.8,30.36,NW,325,0.0,-999.0,91,0.00,,,0.00,0,Wunderground v.1.15,2013-01-19 06:42:00,
2013-01-18 22:44:00,33.1,30.8,30.36,NW,325,0.0,-999.0,91,0.00,,,0.00,0,Wunderground v.1.15,2013-01-19 06:44:00,
2013-01-18 22:47:00,33.0,30.7,30.36,NW,325,0.0,-999.0,91,0.00,,,0.00,0,Wunderground v.1.15,2013-01-19 06:47:00,
2013-01-18 22:49:00,33.0,30.7,30.36,NW,325,0.0,-999.0,91,0.00,,,0.00,0,Wunderground v.1.15,2013-01-19 06:49:00,
2013-01-18 22:50:00,33.0,30.7,30.36,NW,325,0.0,-999.0,91,0.00,,,0.00,0,Wunderground v.1.15,2013-01-19 06:50:00,
2013-01-18 22:52:00,33.0,30.7,30.36,NW,325,0.0,-999.0,91,0.00,,,0.00,0,Wunderground v.1.15,2013-01-19 06:52:00,
2013-01-18 22:53:00,33.0,30.7,30.36,NW,325,0.0,-999.0,91,0.00,,,0.00,0,Wunderground v.1.15,2013-01-19 06:53:00,
2013-01-18 22:54:00,33.0,30.7,30.36,NW,325,0.0,-999.0,91,0.00,,,0.00,0,Wunderground v.1.15,2013-01-19 06:54:00,
2013-01-18 22:55:00,33.0,30.7,30.36,NW,325,0.0,-999.0,91,0.00,,,0.00,0,Wunderground v.1.15,2013-01-19 06:55:00,
2013-01-18 22:57:00,32.8,30.5,30.36,NW,325,0.0,-999.0,91,0.00,,,0.00,0,Wunderground v.1.15,2013-01-19 06:57:00,
2013-01-18 22:59:00,32.8,30.5,30.36,NW,325,0.0,-999.0,91,0.00,,,0.00,0,Wunderground v.1.15,2013-01-19 06:59:00,
2013-01-18 23:00:00,32.8,30.5,30.36,NW,325,0.0,-999.0,91,0.00,,,0.00,0,Wunderground v.1.15,2013-01-19 07:00:00,
2013-01-18 23:02:00,32.8,30.5,30.36,NW,320,0.0,-999.0,91,0.00,,,0.00,0,Wunderground v.1.15,2013-01-19 07:02:00,
2013-01-18 23:04:00,32.7,30.4,30.36,NW,325,0.0,-999.0,91,0.00,,,0.00,0,Wunderground v.1.15,2013-01-19 07:04:00,
2013-01-18 23:06:00,32.7,30.4,30.36,NW,325,0.0,-999.0,91,0.00,,,0.00,0,Wunderground v.1.15,2013-01-19 07:06:00,
2013-01-18 23:08:00,32.7,30.4,30.36,NW,325,0.0,-999.0,91,0.00,,,0.00,0,Wunderground v.1.15,2013-01-19 07:08:00,
2013-01-18 23:09:00,32.7,30.4,30.36,NW,325,0.0,-999.0,91,0.00,,,0.00,0,Wunderground v.1.15,2013-01-19 07:09:00,
2013-01-18 23:10:00,32.7,30.4,30.36,NW,325,0.0,-999.0,91,0.00,,,0.00,0,Wunderground v.1.15,2013-01-19 07:10:00,
2013-01-18 23:11:00,32.7,30.4,30.36,NW,325,0.0,-999.0,91,0.00,,,0.00,0,Wunderground v.1.15,2013-01-19 07:11:00,
2013-01-18 23:13:00,32.7,30.4,30.36,NW,325,0.0,-999.0,91,0.00,,,0.00,0,Wunderground v.1.15,2013-01-19 07:13:00,
2013-01-18 23:14:00,32.7,30.4,30.36,NW,325,0.0,-999.0,91,0.00,,,0.00,0,Wunderground v.1.15,2013-01-19 07:14:00,
2013-01-18 23:15:00,32.7,30.4,30.36,NW,325,0.0,-999.0,91,0.00,,,0.00,0,Wunderground v.1.15,2013-01-19 07:15:00,
2013-01-18 23:17:00,32.7,30.4,30.36,NW,325,0.0,-999.0,91,0.00,,,0.00,0,Wunderground v.1.15,2013-01-19 07:17:00,
2013-01-18 23:18:00,32.7,30.4,30.36,NW,325,0.0,-999.0,91,0.00,,,0.00,0,Wunderground v.1.15,2013-01-19 07:18:00,
2013-01-18 23:19:00,32.7,30.4,30.36,NW,325,0.0,-999.0,91,0.00,,,0.00,0,Wunderground v.1.15,2013-01-19 07:19:00,
2013-01-18 23:20:00,32.7,30.4,30.36,NW,325,0.0,-999.0,91,0.00,,,0.00,0,Wunderground v.1.15,2013-01-19 07:20:00,
2013-01-18 23:22:00,32.5,30.2,30.36,NW,325,0.0,-999.0,91,0.00,,,0.00,0,Wunderground v.1.15,2013-01-19 07:22:00,
2013-01-18 23:24:00,32.5,30.2,30.36,NW,325,0.0,-999.0,91,0.00,,,0.00,0,Wunderground v.1.15,2013-01-19 07:24:00,
2013-01-18 23:25:00,32.5,30.2,30.36,NW,325,0.0,-999.0,91,0.00,,,0.00,0,Wunderground v.1.15,2013-01-19 07:25:00,
2013-01-18 23:28:00,32.5,30.2,30.36,NW,325,0.0,-999.0,91,0.00,,,0.00,0,Wunderground v.1.15,2013-01-19 07:28:00,
2013-01-18 23:29:00,32.5,30.2,30.36,NW,325,0.0,-999.0,91,0.00,,,0.00,0,Wunderground v.1.15,2013-01-19 07:29:00,
2013-01-18 23:30:00,32.5,30.2,30.37,NW,325,0.0,-999.0,91,0.00,,,0.00,0,Wunderground v.1.15,2013-01-19 07:30:00,
2013-01-18 23:33:00,32.4,30.1,30.37,NW,325,0.0,-999.0,91,0.00,,,0.00,0,Wunderground v.1.15,2013-01-19 07:33:00,
2013-01-18 23:34:00,32.4,30.1,30.37,NW,325,0.0,-999.0,91,0.00,,,0.00,0,Wunderground v.1.15,2013-01-19 07:34:00,
2013-01-18 23:36:00,32.4,30.1,30.37,NW,325,0.0,-999.0,91,0.00,,,0.00,0,Wunderground v.1.15,2013-01-19 07:36:00,
2013-01-18 23:38:00,32.2,29.9,30.37,NW,325,0.0,-999.0,91,0.00,,,0.00,0,Wunderground v.1.15,2013-01-19 07:38:00,
2013-01-18 23:39:00,32.2,29.9,30.37,NW,325,0.0,-999.0,91,0.00,,,0.00,0,Wunderground v.1.15,2013-01-19 07:39:00,
2013-01-18 23:41:00,32.2,29.9,30.37,NW,325,0.0,-999.0,91,0.00,,,0.00,0,Wunderground v.1.15,2013-01-19 07:41:00,
2013-01-18 23:44:00,32.2,29.9,30.37,NW,325,0.0,-999.0,91,0.00,,,0.00,0,Wunderground v.1.15,2013-01-19 07:44:00,
2013-01-18 23:46:00,32.2,29.9,30.37,NW,325,0.0,-999.0,91,0.00,,,0.00,0,Wunderground v.1.15,2013-01-19 07:46:00,
2013-01-18 23:49:00,32.1,29.8,30.37,NW,325,0.0,-999.0,91,0.00,,,0.00,0,Wunderground v.1.15,2013-01-19 07:49:00,
2013-01-18 23:50:00,32.1,29.8,30.37,NW,325,0.0,-999.0,91,0.00,,,0.00,0,Wunderground v.1.15,2013-01-19 07:50:00,
2013-01-18 23:51:00,32.1,29.8,30.37,NW,325,0.0,-999.0,91,0.00,,,0.00,0,Wunderground v.1.15,2013-01-19 07:51:00,
2013-01-18 23:52:00,32.1,29.8,30.37,NW,325,0.0,-999.0,91,0.00,,,0.00,0,Wunderground v.1.15,2013-01-19 07:52:00,
2013-01-18 23:54:00,32.1,29.8,30.37,NW,325,0.0,-999.0,91,0.00,,,0.00,0,Wunderground v.1.15,2013-01-19 07:54:00,
2013-01-18 23:55:00,32.1,29.8,30.37,NW,325,0.0,-999.0,91,0.00,,,0.00,0,Wunderground v.1.15,2013-01-19 07:55:00,
2013-01-18 23:57:00,32.1,29.8,30.37,NW,325,0.0,-999.0,91,0.00,,,0.00,0,Wunderground v.1.15,2013-01-19 07:57:00,
2013-01-18 23:59:00,32.1,29.8,30.37,NW,325,0.0,-999.0,91,0.00,,,0.00,0,Wunderground v.1.15,2013-01-19 07:59:00,